GFSMA_sfc_temp_000.txt.gz
Temp
78 81 79 78 79 79 80 77 78 78 78 79 80 78 82 81 82 78 75 81 80 81 82 82 82 81 81 80 80 80 80 80 79 79 79 79 79 79 79 79 78 78 78
80 79 79 76 77 78 77 78 77 76 76 78 78 79 79 79 79 80 77 79 80 80 81 82 82 81 81 81 80 79 80 80 79 79 78 78 77 78 78 78 78 78 78
79 77 76 79 80 78 78 77 78 77 77 78 78 79 80 81 80 78 78 78 80 80 81 81 81 81 80 81 81 80 80 79 78 78 78 78 78 77 78 78 78 78 78
79 78 77 79 80 80 77 76 75 74 76 76 76 77 77 78 81 80 78 76 77 81 80 80 80 80 80 80 81 80 79 78 78 77 77 78 78 77 77 77 78 78 77
81 76 79 79 79 77 78 76 74 74 74 75 77 77 77 77 79 85 82 78 78 78 76 79 80 79 80 81 81 80 79 78 77 78 78 77 78 77 77 77 77 77 77
80 78 78 78 77 77 75 76 74 75 74 74 77 76 75 77 79 78 78 82 78 79 77 75 74 76 79 79 80 80 79 79 78 78 78 78 78 77 77 77 76 76 77
80 77 79 76 76 75 74 75 75 74 74 76 73 73 73 76 77 78 76 78 78 78 77 74 74 73 74 78 78 79 80 80 79 79 78 76 78 77 77 76 76 76 76
78 78 76 78 76 73 75 75 74 73 74 74 71 71 67 72 78 79 76 78 76 76 76 75 73 73 73 74 77 79 79 79 80 79 77 77 77 77 76 76 76 76 75
77 77 77 75 75 76 73 74 74 72 71 73 73 70 66 67 71 74 76 75 75 75 74 74 74 74 74 74 78 78 78 77 79 80 79 78 77 76 76 76 75 75 75
78 77 76 76 75 76 73 76 74 71 71 70 72 73 72 74 68 67 73 74 75 74 74 73 74 76 75 74 78 78 77 76 77 79 79 79 78 76 76 76 75 75 75
77 77 76 76 75 75 75 75 75 72 71 70 70 71 71 72 73 71 68 70 72 75 75 73 75 74 76 75 75 79 77 75 76 76 78 78 78 78 77 77 76 76 76
74 75 76 75 75 75 74 73 75 73 72 71 70 69 69 69 71 70 68 70 69 73 76 77 77 76 77 79 80 78 77 76 75 75 75 76 77 78 78 78 77 78 77
73 73 74 74 74 75 75 74 73 73 72 70 70 69 69 73 74 74 73 70 69 72 73 76 78 77 81 78 79 79 78 76 74 73 73 73 74 76 76 77 76 78 77
73 75 74 74 75 75 75 74 74 71 73 71 71 71 71 75 77 76 74 71 67 70 73 72 78 78 78 78 79 78 77 74 73 72 71 71 73 74 75 76 76 76 76
74 76 75 74 74 74 75 72 74 72 70 70 71 72 69 70 75 77 77 76 70 65 66 71 71 77 77 77 76 78 75 74 74 72 70 69 71 71 73 74 73 72 71
74 76 76 75 73 73 73 73 71 73 71 70 71 72 71 73 74 73 77 77 76 71 65 71 70 73 75 77 76 74 72 70 69 69 68 67 68 69 70 70 70 70 69
71 69 71 74 74 72 73 71 72 72 71 71 72 71 71 72 73 71 75 76 75 74 68 68 70 72 72 71 72 73 71 68 66 66 66 65 65 66 66 66 66 66 66
74 72 71 70 72 72 71 71 71 72 71 70 70 70 69 71 72 73 75 74 73 74 69 67 68 70 68 71 69 71 73 74 67 67 66 65 64 63 63 62 62 62 62
73 73 73 74 71 70 68 67 66 65 66 67 65 65 65 66 66 67 70 70 71 72 71 67 66 69 68 68 68 68 68 68 68 68 65 64 63 62 62 61 60 59 57
73 71 69 69 70 71 69 67 65 64 64 63 62 62 62 62 62 64 66 67 68 69 68 67 65 65 67 69 70 67 64 66 65 71 68 65 65 65 63 62 62 60 58
73 71 70 70 70 69 67 65 65 64 62 61 60 60 60 62 62 62 62 61 62 65 66 65 64 64 65 67 67 66 67 66 64 66 64 63 61 62 61 63 63 61 58
72 71 71 71 70 70 62 63 65 64 62 60 58 58 58 60 61 62 63 63 61 59 66 65 65 63 65 65 64 64 64 62 59 64 62 63 65 64 64 62 61 60 58
70 69 65 65 64 63 58 61 64 66 64 63 61 61 61 64 63 64 63 62 60 60 64 63 61 60 59 60 62 62 60 60 59 60 61 59 63 62 61 60 60 58 57
69 67 66 65 63 58 56 57 62 68 65 62 62 62 60 58 59 63 63 60 57 56 58 60 56 56 56 57 58 61 60 60 61 61 61 55 58 56 59 59 60 58 58
65 64 64 62 60 56 53 55 64 64 60 58 57 56 58 57 56 61 62 59 57 56 56 56 56 56 57 57 58 61 56 56 57 58 58 56 55 55 57 57 58 58 57
63 61 59 58 56 55 50 51 61 64 60 59 56 55 54 53 52 55 61 60 56 56 59 58 57 57 58 58 60 59 58 55 54 54 55 53 55 55 52 58 58 56 56

GFSMA_sfc_temp_003.txt.gz
Temp
71 73 72 73 74 74 74 74 73 73 75 75 76 76 76 75 77 74 74 81 81 81 82 82 81 81 81 80 80 80 80 80 79 79 79 79 79 79 79 79 79 78 78
72 72 72 72 73 73 73 73 73 73 72 74 75 76 76 75 77 73 74 74 80 80 81 81 81 81 81 81 80 80 80 81 80 78 78 78 78 78 78 78 78 78 77
72 72 71 71 72 73 73 73 74 73 73 74 74 75 75 74 76 76 75 74 77 81 80 81 81 81 81 81 81 80 79 79 79 78 78 77 77 77 78 78 78 78 77
73 72 71 71 72 72 72 72 72 72 72 72 72 73 75 75 76 73 76 75 74 78 79 80 80 80 80 81 81 81 80 79 78 78 78 78 77 77 77 77 78 77 77
75 72 71 71 72 72 71 72 70 71 71 72 72 72 73 73 75 78 75 75 74 75 75 79 80 79 80 82 81 80 79 79 78 78 78 78 78 77 77 77 77 77 76
74 71 71 71 71 70 70 71 70 70 71 72 74 73 72 73 74 73 73 76 74 75 75 75 77 77 80 81 80 80 80 80 78 78 78 78 77 77 76 76 76 76 76
73 71 70 71 70 70 70 70 70 69 70 72 70 69 71 73 73 73 72 73 74 75 74 74 74 74 75 79 79 79 80 80 79 78 78 78 77 77 76 76 76 76 76
73 70 70 70 70 70 69 70 70 68 70 70 66 67 64 67 72 72 72 72 72 73 74 75 73 73 73 73 74 77 79 80 79 79 78 77 76 76 76 76 75 75 75
72 70 70 70 70 70 69 70 70 68 67 70 71 67 63 62 67 70 70 71 72 70 72 73 73 73 72 73 74 76 79 77 79 79 79 77 76 76 76 76 75 75 75
72 72 70 70 70 69 69 70 70 68 68 67 68 71 69 68 64 63 68 70 71 71 71 70 72 73 73 72 75 76 77 75 77 78 79 78 77 76 76 76 75 75 75
70 72 71 70 70 69 70 69 68 67 67 67 66 67 68 68 68 65 63 65 69 70 70 71 72 72 73 72 72 74 76 75 75 76 77 78 77 77 77 76 76 76 76
68 70 71 70 69 70 69 70 69 68 68 67 67 68 66 66 65 65 63 64 65 68 71 70 70 71 73 73 76 76 76 75 74 74 75 76 77 77 77 78 78 78 78
67 68 69 69 69 70 69 70 69 68 68 68 68 67 67 67 68 67 66 65 65 67 70 71 70 71 74 73 75 76 77 75 73 72 72 72 74 75 76 76 77 77 78
67 69 69 69 70 70 69 69 69 68 68 68 68 68 68 68 68 69 71 66 63 64 67 67 69 69 70 72 75 76 72 74 72 71 71 71 72 72 72 73 73 75 75
69 70 70 69 70 69 69 68 68 69 69 68 68 69 68 67 67 69 68 69 64 61 62 68 67 69 70 73 75 73 70 71 72 70 68 68 69 70 69 71 71 71 71
68 69 70 69 69 69 69 69 68 69 68 67 67 67 66 65 66 68 67 66 69 64 61 65 66 69 72 73 73 70 70 69 68 67 66 65 66 67 68 69 69 68 68
68 68 68 68 68 68 69 68 68 68 68 67 68 68 68 69 68 68 68 68 66 68 62 65 66 69 68 68 68 68 67 64 64 66 65 65 65 65 65 65 65 66 66
68 67 68 68 67 67 67 68 68 68 67 67 67 67 67 70 66 66 67 67 69 70 65 64 66 65 66 67 67 66 66 66 64 66 64 64 63 63 62 62 62 61 61
68 68 68 67 67 66 66 65 65 64 64 63 63 63 64 65 64 65 65 66 66 66 67 65 64 64 64 65 63 64 64 62 65 66 64 63 62 62 61 60 59 58 57
67 66 67 67 67 66 65 65 64 63 62 61 61 61 61 61 62 63 62 61 63 65 65 64 62 63 64 65 63 61 61 60 60 66 64 62 63 64 62 61 61 59 56
66 66 66 65 65 66 65 64 63 61 60 59 59 59 59 62 63 62 59 58 61 62 64 64 62 62 63 63 62 62 60 59 59 60 57 57 57 57 59 62 63 61 58
66 66 64 61 60 63 62 63 63 61 60 58 56 55 56 59 61 60 60 61 61 59 62 63 61 59 57 60 60 60 59 57 59 59 58 56 58 56 57 56 61 59 58
64 61 60 57 55 55 58 61 63 61 61 59 58 59 59 60 59 58 58 59 59 60 59 58 55 56 54 55 58 57 56 56 53 56 56 54 55 54 56 58 60 58 57
61 61 59 55 53 54 55 59 61 59 56 55 57 58 56 56 58 59 58 58 57 57 57 57 54 53 54 57 57 59 58 58 58 57 56 54 55 52 53 54 60 59 57
55 53 53 55 55 52 52 57 59 57 55 52 53 54 55 56 58 58 59 56 56 55 57 57 57 57 57 57 58 59 55 56 55 54 53 52 55 55 57 56 54 58 56
53 52 50 49 52 51 50 52 59 59 55 55 54 54 54 53 52 54 59 57 55 54 55 57 57 57 56 57 57 56 54 50 51 52 53 52 54 53 52 56 55 52 51

GFSMA_sfc_temp_006.txt.gz
Temp
72 73 72 72 72 73 73 72 72 72 74 75 75 74 74 74 74 73 72 79 81 80 81 81 81 81 81 80 80 80 80 80 79 79 79 79 79 79 79 78 78 78 78
70 70 71 71 71 72 72 72 72 72 72 72 74 74 74 74 74 73 74 75 81 80 80 81 81 81 81 81 80 80 80 80 79 79 78 78 78 78 78 78 78 78 77
70 70 70 70 70 71 72 72 72 72 71 73 73 74 74 75 73 74 73 73 74 80 80 81 81 80 81 81 80 80 79 79 78 78 78 77 77 77 78 78 78 78 77
71 71 70 70 70 70 71 70 70 70 70 71 71 72 72 72 74 74 73 74 73 76 79 80 80 80 80 81 81 80 79 79 78 78 78 77 77 77 77 77 78 77 77
72 70 70 70 70 70 70 70 69 70 69 70 70 71 71 71 73 75 74 74 73 73 74 79 79 79 80 81 81 81 80 79 78 78 78 77 77 77 76 76 77 77 76
72 70 69 69 70 69 69 70 69 69 68 69 72 71 72 70 72 72 73 75 73 74 74 74 76 77 80 81 80 80 80 79 78 79 78 77 77 77 76 76 76 76 76
72 71 69 69 68 69 69 70 68 67 67 69 67 68 69 71 71 71 71 73 73 73 73 73 73 74 76 79 79 79 80 80 79 78 78 77 77 76 76 76 75 75 75
71 70 69 68 68 68 68 69 68 67 67 68 65 65 64 66 70 71 71 71 72 72 73 72 72 73 74 74 75 79 79 79 79 79 78 77 76 76 76 76 75 75 75
71 70 69 68 68 68 68 69 69 68 66 67 68 66 61 61 65 68 70 70 71 70 71 72 73 73 72 73 74 76 78 77 79 80 79 77 76 76 76 75 75 74 75
70 70 69 68 68 68 68 68 69 68 67 66 66 69 67 66 63 62 66 69 70 70 70 71 71 72 72 72 74 75 76 75 77 79 79 78 77 75 76 75 76 76 74
68 70 69 68 68 68 68 68 68 67 67 66 65 65 66 66 65 63 62 65 68 69 70 71 71 71 72 72 72 73 75 75 75 76 77 77 78 77 77 77 77 76 76
66 68 69 68 69 68 68 69 68 66 67 66 65 66 65 64 64 64 63 64 65 67 69 69 69 70 72 72 74 75 75 75 74 74 74 75 77 76 77 77 77 77 76
65 67 68 67 67 68 68 68 68 67 66 66 66 65 66 66 66 65 64 64 63 66 67 68 69 69 72 70 73 76 76 75 72 72 72 73 74 75 76 76 76 78 78
66 67 67 67 68 69 68 68 69 68 68 67 67 66 66 67 67 67 65 64 61 63 64 66 67 69 69 70 72 74 71 71 71 69 69 68 69 71 71 73 74 75 75
67 68 68 68 68 68 68 68 67 67 67 66 66 67 67 67 67 67 67 66 64 61 61 64 65 68 70 70 72 71 71 70 70 68 68 67 66 67 67 69 70 70 68
67 67 67 67 67 68 68 66 66 67 66 66 67 66 66 66 66 67 67 66 66 64 61 65 66 68 69 72 72 69 70 70 68 67 66 65 66 66 66 67 67 67 67
66 66 67 66 66 67 67 66 66 67 66 66 66 66 65 65 65 66 66 66 66 65 62 64 66 67 67 67 67 66 66 65 65 66 65 65 65 65 65 65 65 65 66
66 67 67 66 65 65 66 66 67 67 66 66 66 66 66 67 65 65 65 65 66 66 64 63 65 65 65 66 66 64 65 65 64 65 64 64 63 62 62 62 62 61 61
65 66 66 65 65 65 64 64 63 63 63 63 63 63 64 65 64 63 63 63 64 65 65 63 62 63 64 64 62 63 62 61 64 66 64 63 62 61 61 60 59 57 56
65 65 64 64 65 65 65 65 63 62 61 61 61 61 61 62 62 61 61 61 62 63 63 63 62 62 63 63 62 59 60 59 59 63 63 62 62 63 61 60 59 58 55
64 64 63 63 63 64 64 62 61 61 60 58 58 60 60 62 62 61 60 60 61 62 62 62 61 62 61 61 60 61 59 59 58 59 57 57 57 56 58 61 62 60 57
61 59 57 57 60 63 61 61 61 58 57 56 55 55 57 59 59 59 60 60 60 61 61 61 61 58 57 58 58 59 57 55 55 57 56 54 56 55 56 55 61 59 57
57 55 53 53 53 57 59 60 61 59 59 58 58 57 58 59 57 54 57 58 58 59 60 61 56 54 53 55 57 56 55 56 55 54 55 51 53 52 55 57 60 59 57
58 57 55 52 51 53 57 57 58 55 53 53 55 57 57 56 57 57 56 56 57 57 58 57 54 53 56 57 57 58 57 55 56 55 56 51 52 52 54 57 60 59 57
50 48 51 54 53 54 54 55 56 56 53 50 51 53 53 54 56 57 57 56 55 56 57 56 56 56 56 56 57 55 51 54 50 50 51 51 51 53 54 54 56 59 56
50 50 50 52 52 52 51 53 57 57 51 52 53 52 54 53 52 53 54 52 51 53 54 56 55 54 56 56 56 53 52 50 50 50 52 52 50 51 49 52 52 54 54

GFSMA_sfc_temp_009.txt.gz
Temp
71 71 71 72 72 72 72 72 72 72 73 73 74 73 72 73 73 72 73 80 80 80 81 82 81 81 81 80 80 80 80 80 79 79 80 79 79 79 79 79 78 78 78
70 70 70 70 71 71 71 71 71 71 71 72 73 73 71 73 73 72 72 73 80 80 81 81 81 81 81 80 80 80 80 80 79 79 78 77 78 78 78 78 78 78 78
70 70 69 70 70 70 71 71 71 71 70 71 71 73 72 73 73 73 72 72 75 80 80 80 80 80 81 81 80 80 79 79 79 79 78 77 77 77 77 78 78 78 77
69 69 68 69 70 70 70 69 69 69 69 69 70 71 72 72 73 73 73 73 73 75 78 80 80 80 80 81 81 80 79 78 78 78 78 78 78 77 77 77 78 77 77
71 70 69 69 70 69 69 69 68 69 68 69 69 70 70 70 71 73 72 73 73 73 73 78 80 79 80 81 81 81 80 79 78 78 78 78 78 77 77 76 77 77 76
71 70 70 70 69 68 68 68 68 68 68 68 70 70 70 70 71 71 72 74 73 73 73 72 74 76 79 80 80 80 80 79 79 79 78 77 77 77 76 76 76 76 76
71 70 69 68 68 68 68 68 67 66 67 68 65 66 67 69 70 70 71 73 72 73 72 73 73 74 76 79 79 79 80 80 79 78 78 78 77 77 76 76 76 75 75
70 70 68 68 68 68 67 68 67 66 66 67 64 63 62 65 67 69 70 71 71 72 72 73 72 73 73 74 76 79 79 79 79 79 78 77 76 76 76 76 75 75 75
69 69 69 68 68 68 67 67 68 66 65 66 67 64 60 60 63 67 69 70 70 70 71 72 72 72 72 72 75 77 79 77 78 79 79 77 76 76 76 76 75 75 75
68 69 68 68 67 67 67 68 68 67 65 64 66 66 66 64 61 61 65 68 69 70 70 70 71 72 72 72 75 76 76 75 77 78 79 78 76 76 76 76 76 75 75
67 68 68 67 67 67 67 67 67 66 66 65 66 64 64 65 64 62 60 63 66 68 70 70 70 70 71 71 71 73 75 75 75 76 77 78 77 77 77 77 77 77 76
65 66 68 67 67 67 67 67 67 67 66 66 65 64 65 64 63 62 61 62 62 67 70 69 70 70 70 70 73 75 74 74 74 73 74 76 77 77 78 77 76 77 77
64 65 66 66 66 67 67 67 66 66 66 65 65 64 65 65 65 64 63 62 61 64 67 68 69 69 71 70 71 75 75 74 72 70 70 72 74 75 76 76 76 77 78
64 66 66 66 67 67 67 67 67 66 66 66 65 65 65 66 66 66 64 62 61 61 63 65 66 68 68 69 71 74 72 71 70 68 68 68 69 71 73 74 74 74 75
66 67 67 66 66 67 67 66 67 69 67 65 65 65 65 66 67 67 66 65 63 60 61 64 64 67 67 69 71 71 70 70 70 68 67 66 67 67 68 69 69 68 68
65 66 66 66 66 66 66 66 67 67 67 66 65 65 66 66 66 66 66 66 66 64 61 63 64 66 69 70 70 69 69 69 68 68 67 65 65 65 66 67 67 67 67
65 66 65 65 65 65 66 65 64 66 66 65 65 65 65 66 65 66 66 65 65 65 62 64 65 66 67 66 66 65 65 64 64 66 66 65 64 64 65 65 65 65 66
65 66 66 64 64 65 65 65 66 67 66 65 65 64 65 67 65 66 65 65 64 65 64 62 64 64 65 65 65 64 63 64 63 65 64 63 63 62 62 62 62 61 61
64 64 64 64 63 62 62 62 63 63 62 63 64 65 65 65 64 63 63 63 63 64 64 63 62 63 64 63 60 61 61 61 64 65 64 62 62 61 60 60 59 57 57
63 62 62 63 63 64 64 63 62 61 60 60 61 61 62 62 61 61 61 62 62 63 63 62 61 62 62 61 60 57 57 59 58 61 62 61 62 63 61 60 60 58 55
61 60 60 61 62 62 62 61 62 61 59 58 59 60 61 63 63 63 61 61 62 61 61 61 61 61 61 60 59 59 57 58 57 59 57 56 56 56 58 60 62 61 57
56 57 57 60 60 61 59 60 59 57 56 57 56 57 57 58 59 59 60 60 59 60 60 60 60 59 57 57 57 59 55 55 54 56 56 54 56 56 57 57 61 59 57
54 53 55 57 58 59 58 59 60 58 59 58 57 57 58 57 55 55 57 58 58 59 58 59 56 53 54 55 56 55 55 55 53 53 55 52 53 54 54 56 60 59 57
52 50 50 51 56 57 55 55 56 53 51 51 53 57 56 56 56 57 57 55 55 56 57 57 53 52 53 54 55 56 55 52 52 52 52 49 52 51 54 56 60 59 56
48 48 52 55 55 54 53 54 54 51 50 49 50 52 52 52 56 56 55 53 53 52 56 56 56 55 55 55 57 55 52 52 50 51 53 52 50 51 53 53 55 58 56
48 49 50 53 54 54 52 52 56 54 49 49 49 49 54 51 52 52 53 53 52 52 54 54 54 55 55 55 56 54 54 51 50 50 51 50 49 49 48 51 52 52 53

GFSMA_sfc_temp_012.txt.gz
Temp
73 74 74 74 74 74 74 74 74 75 75 75 75 75 75 75 75 75 75 81 80 80 81 81 81 81 81 80 80 80 80 80 79 79 79 79 79 79 79 79 78 78 78
72 72 72 72 72 73 74 74 74 73 73 74 75 75 75 75 75 75 75 76 80 80 81 81 81 81 81 81 80 80 80 80 80 79 79 79 78 78 78 79 79 78 78
71 70 71 72 72 72 73 73 73 73 73 73 73 74 74 74 75 75 75 75 77 80 81 81 81 80 81 81 80 80 79 79 79 78 78 78 77 77 78 78 78 78 78
71 71 70 71 72 72 72 71 72 71 72 72 72 73 74 74 74 74 75 76 75 79 79 80 80 80 80 81 81 80 79 79 78 78 77 78 77 77 77 77 78 77 77
72 70 70 71 72 71 71 71 71 71 70 71 71 72 72 73 73 75 75 75 75 75 77 78 79 79 80 81 81 81 80 79 78 78 78 78 78 77 77 77 77 77 76
71 71 71 70 71 71 70 70 70 70 71 71 72 72 72 72 72 73 74 76 75 75 75 76 77 78 80 81 81 81 80 79 78 78 78 78 77 77 76 76 76 76 76
71 70 69 70 70 70 70 70 70 70 69 70 69 67 69 71 72 73 74 75 74 75 74 75 76 76 78 79 79 79 80 80 79 78 78 77 77 77 76 77 76 76 76
70 71 70 69 68 69 69 69 69 68 68 69 67 66 66 70 70 72 73 74 74 75 74 75 75 76 77 77 78 79 79 80 80 79 78 77 77 77 76 76 76 75 75
69 69 70 69 68 69 68 69 70 69 67 68 69 66 63 64 66 70 71 72 73 72 73 75 75 75 76 75 77 78 79 78 79 79 78 77 77 76 76 76 75 75 75
69 70 69 69 69 68 69 70 70 69 69 67 68 68 68 68 65 66 69 71 72 72 73 74 74 75 75 75 76 76 77 76 78 79 76 78 77 76 76 76 76 75 75
68 69 70 69 68 68 69 69 69 69 69 68 68 67 68 68 68 66 65 68 70 73 74 74 74 74 76 76 76 75 75 75 76 77 77 77 77 77 77 77 77 77 77
67 67 69 69 69 68 69 69 70 69 69 69 68 68 68 67 67 66 65 66 68 71 74 74 74 74 74 75 76 75 75 74 74 74 74 75 77 77 77 78 77 77 77
66 67 68 68 68 69 69 69 69 69 68 68 67 68 68 68 69 67 67 66 66 68 71 73 72 73 76 75 75 75 76 74 72 71 71 72 74 75 76 77 77 77 77
66 68 68 69 69 69 69 69 69 69 68 68 67 67 67 68 69 68 68 66 65 65 67 70 70 71 72 74 75 74 75 72 71 69 68 68 69 70 73 74 74 75 75
67 69 69 69 69 69 69 69 68 68 68 68 68 67 67 68 69 69 69 68 67 64 65 69 68 71 71 73 74 75 74 70 70 68 66 66 67 67 68 68 69 70 70
67 68 68 69 69 69 69 68 68 69 68 67 68 67 67 68 69 69 68 68 68 66 64 66 65 67 70 70 70 70 70 68 67 67 67 67 66 65 66 66 67 67 67
67 66 66 67 67 68 68 68 67 68 67 67 67 67 68 68 68 68 67 66 66 66 63 64 66 67 68 68 66 65 66 66 66 65 65 65 64 64 65 65 65 66 66
66 65 66 65 65 66 67 67 68 68 67 66 67 67 67 68 66 66 66 65 65 66 64 63 64 65 65 64 63 62 63 63 63 65 64 63 63 63 63 63 62 62 62
65 65 65 65 64 64 64 64 64 63 64 64 66 65 66 66 65 65 64 63 64 65 65 63 62 64 64 62 60 60 60 60 64 65 63 62 61 61 60 60 59 58 57
64 64 64 64 64 65 65 64 63 62 61 61 61 62 62 62 62 62 63 63 64 63 63 62 62 62 61 61 59 57 56 57 57 60 61 62 62 63 61 60 60 59 56
62 62 63 63 63 64 65 63 62 61 60 59 59 60 62 63 63 63 61 61 61 62 62 61 61 61 61 60 59 58 56 56 55 57 56 56 56 57 58 61 62 60 57
59 62 62 62 62 63 59 60 61 59 59 59 57 57 57 57 57 58 58 59 59 59 61 60 61 59 57 57 57 59 56 56 53 56 55 54 56 56 57 59 61 59 57
57 58 59 61 60 59 57 58 60 59 60 59 58 58 57 56 56 55 57 58 58 58 58 58 52 52 52 53 56 56 56 54 52 51 54 52 54 54 55 56 57 57 55
55 55 56 58 57 56 54 54 56 56 55 55 57 57 56 57 57 57 56 55 55 55 57 57 54 52 54 54 53 55 53 51 52 51 53 49 50 50 54 53 56 57 56
53 54 56 56 55 55 53 53 55 55 54 53 55 56 56 57 55 56 57 55 55 56 56 56 56 56 55 55 57 57 54 57 54 53 53 52 50 51 51 51 53 55 56
53 54 55 55 55 54 51 51 55 56 54 54 54 54 54 54 51 51 56 56 54 55 57 57 57 56 56 56 56 55 56 53 52 53 54 51 50 52 49 52 51 50 51

GFSMA_sfc_temp_015.txt.gz
Temp
72 81 83 85 84 85 85 84 84 82 81 81 80 82 80 81 82 86 87 81 80 80 82 82 80 81 81 80 80 80 80 80 80 80 80 80 79 79 79 79 79 79 78
74 80 81 81 82 83 85 85 84 83 82 81 81 80 81 82 80 82 88 87 80 80 81 81 80 81 81 81 80 80 80 80 80 79 79 79 77 78 79 79 79 78 78
81 78 80 83 84 80 80 83 83 83 82 82 80 80 81 81 82 81 85 86 87 80 80 81 80 80 81 81 81 80 80 79 79 79 78 78 78 77 77 78 79 78 78
81 79 79 83 85 82 80 81 82 82 83 82 80 79 79 79 81 81 83 85 86 88 82 80 80 80 79 81 81 80 79 79 78 78 78 78 77 77 77 77 78 78 78
81 81 82 81 81 84 83 82 79 79 80 81 81 79 78 77 79 82 81 80 84 84 88 82 80 79 80 80 81 81 80 79 78 78 78 78 78 77 77 77 77 77 77
80 78 79 80 81 83 82 82 80 83 81 81 81 80 78 77 77 80 81 82 84 84 85 84 86 83 80 80 80 81 80 80 78 78 78 78 77 77 77 77 76 77 76
79 78 80 78 75 75 79 78 77 77 79 80 78 79 78 78 76 80 81 79 83 84 84 83 83 87 87 79 79 79 80 80 79 78 77 77 77 77 77 77 76 76 76
75 74 73 79 77 75 74 77 77 76 80 80 77 75 73 76 77 79 80 83 83 84 82 83 83 83 84 86 84 79 79 80 80 79 78 77 77 77 77 76 76 76 76
77 76 73 73 76 71 70 71 76 77 76 79 78 73 70 74 76 79 79 81 82 83 83 84 82 81 82 85 84 83 79 78 79 80 79 77 75 74 76 76 76 75 75
77 78 77 75 73 72 69 70 75 76 75 75 77 77 76 75 70 71 79 80 81 81 81 84 83 81 84 85 84 80 77 75 77 79 79 78 75 73 75 76 76 76 75
77 77 77 77 76 75 71 69 70 75 77 75 76 78 75 73 73 69 73 77 79 83 85 85 86 85 85 85 86 81 76 75 75 76 77 78 76 75 76 76 77 77 76
78 76 76 76 77 77 75 73 74 76 76 76 77 79 77 73 72 71 70 74 79 82 85 85 85 86 86 86 84 79 76 74 74 74 75 76 77 77 77 77 78 78 78
77 75 75 74 77 76 76 75 76 76 76 76 76 79 80 79 75 75 73 77 77 81 81 85 86 85 85 85 85 78 78 74 73 71 71 72 74 75 76 76 77 77 78
75 76 76 77 77 75 74 73 77 75 75 75 76 76 78 75 72 70 73 69 71 75 79 79 82 81 81 81 81 74 81 73 72 70 69 69 70 70 72 73 74 75 75
74 76 77 76 78 77 76 75 76 74 74 74 75 75 75 73 68 74 75 75 70 72 76 77 79 78 78 79 78 80 79 69 71 69 67 67 67 68 69 70 70 70 70
70 73 73 75 76 76 76 74 72 73 72 71 72 72 74 77 76 74 72 76 76 71 69 76 73 71 71 69 70 71 71 70 66 66 67 65 66 66 66 67 67 67 68
73 72 70 70 71 74 75 72 71 71 70 71 71 70 72 73 75 75 75 74 72 72 67 68 68 68 68 68 66 67 69 68 66 65 65 65 64 64 65 65 66 66 66
73 73 69 67 68 70 71 72 71 71 70 70 71 69 70 72 71 72 71 70 66 66 64 63 65 66 64 62 63 62 64 64 63 64 63 62 62 62 61 62 62 61 61
73 73 72 70 69 68 67 66 66 64 63 65 68 69 68 69 67 66 66 66 66 66 66 64 63 65 63 61 59 59 59 61 62 64 62 62 61 61 60 59 58 57 56
73 73 72 72 71 71 71 69 67 65 62 62 62 62 62 62 63 63 63 63 64 64 64 64 63 62 61 61 61 58 57 58 57 59 59 59 60 61 60 59 58 57 54
71 71 72 71 72 70 68 67 67 67 62 60 59 60 61 62 62 62 61 60 62 63 63 63 62 62 61 61 60 58 56 56 56 58 56 57 58 58 57 58 59 58 56
69 70 69 70 69 69 58 61 66 65 63 62 60 59 57 57 59 59 60 60 59 60 61 61 59 58 55 56 58 59 56 55 53 55 55 53 57 55 55 55 57 56 56
66 65 66 68 66 65 57 58 62 67 64 62 62 61 61 59 58 59 59 59 59 59 59 59 55 54 54 54 57 57 57 54 53 53 55 52 55 54 56 56 55 55 53
65 63 62 62 64 61 55 55 60 66 66 65 64 65 65 64 63 64 64 63 62 63 64 65 61 58 55 57 57 57 54 52 53 53 55 51 53 50 51 52 55 55 53
65 63 61 61 62 61 53 54 63 66 64 64 65 66 66 64 55 58 65 62 62 62 58 56 56 56 55 55 59 64 59 64 62 59 58 54 54 52 51 51 53 54 54
65 65 60 60 57 60 50 52 62 68 64 65 64 62 53 59 51 53 65 64 61 62 64 64 64 62 61 60 58 62 66 60 60 59 59 59 57 60 56 54 53 53 54

GFSMA_sfc_temp_021.txt.gz
Temp
86 87 87 89 88 86 77 76 79 89 88 88 86 88 87 87 87 89 92 82 81 81 81 81 81 81 80 81 80 80 80 80 80 80 80 80 80 79 80 80 80 79 79
85 85 81 84 83 85 82 74 85 81 90 90 86 86 86 85 86 85 89 89 81 81 81 82 81 81 81 81 80 81 81 80 80 80 80 79 79 79 79 79 79 79 79
87 82 86 81 79 76 76 71 75 89 81 84 89 88 89 85 85 87 83 88 84 81 81 81 81 81 81 81 81 80 80 80 80 79 79 79 78 78 78 78 79 79 78
86 84 87 87 84 72 70 70 80 87 85 80 80 81 87 89 89 85 84 89 91 86 81 81 80 80 80 80 78 79 79 79 79 78 79 78 78 78 77 77 78 78 78
89 88 90 88 86 83 79 78 82 80 76 86 88 82 82 86 88 89 85 87 86 87 86 82 80 78 80 79 77 78 79 79 78 78 79 78 78 78 77 77 77 77 78
88 84 84 87 83 77 79 83 80 87 88 89 91 88 83 88 89 89 86 83 82 81 88 86 79 75 78 79 78 77 79 79 79 78 78 78 78 77 77 77 76 76 77
87 85 82 82 82 80 86 85 81 86 88 89 81 85 88 90 86 87 87 86 82 85 86 83 77 79 79 78 78 78 78 79 79 79 78 77 77 77 77 77 76 76 76
86 83 81 80 81 79 81 81 81 78 80 80 81 83 81 87 90 89 86 82 85 84 85 84 83 83 76 75 78 78 78 79 79 80 78 77 76 76 75 75 76 76 76
86 82 82 81 79 78 77 80 79 78 75 77 80 83 80 80 86 82 83 85 85 81 81 82 79 85 81 76 77 80 79 77 79 80 79 78 76 75 75 75 75 75 75
84 83 81 82 80 79 78 78 79 80 76 73 76 85 85 84 77 75 79 78 82 80 80 76 75 77 82 79 81 81 79 77 78 79 80 79 78 76 76 76 76 75 74
86 83 83 81 80 79 80 78 79 77 79 76 76 76 81 85 82 77 73 75 82 86 83 79 77 81 84 89 92 88 78 77 76 77 78 78 79 78 78 77 76 76 74
85 83 83 81 78 78 78 79 79 78 78 80 73 76 73 79 80 77 71 74 78 77 82 75 79 82 81 81 79 83 80 75 74 75 75 75 76 78 78 78 77 77 76
83 78 81 81 80 78 79 79 78 78 77 77 74 76 76 81 81 75 75 76 77 77 77 80 85 86 91 83 76 79 79 75 73 72 72 72 74 75 76 76 77 77 77
80 80 77 82 81 81 81 81 82 81 80 79 76 77 77 79 87 75 77 73 72 78 82 80 81 83 85 77 77 78 75 70 69 69 68 68 69 70 72 73 74 74 75
81 80 78 78 82 81 81 81 81 80 76 76 75 73 76 78 86 88 84 75 73 71 74 76 75 74 73 78 74 74 70 67 67 67 67 67 67 68 69 70 70 69 69
77 76 78 80 76 80 81 80 79 79 79 76 75 76 77 78 80 80 83 84 77 75 71 70 71 73 71 70 70 69 67 66 65 65 64 64 65 66 67 68 68 68 68
76 75 75 76 77 78 78 78 77 78 77 76 76 75 76 79 78 78 78 78 75 73 69 70 71 72 67 67 66 66 66 64 63 64 63 62 62 62 62 62 63 63 63
77 76 75 75 75 75 77 76 73 73 72 71 72 73 74 76 76 76 75 75 73 74 71 70 71 65 62 61 61 60 61 62 61 63 62 61 60 59 59 59 58 58 58
78 77 76 74 75 75 74 74 72 70 69 68 68 67 68 71 68 69 70 70 71 71 70 68 65 64 61 61 59 60 59 58 60 62 61 60 60 59 58 57 56 54 54
78 76 76 76 76 75 74 73 72 70 69 67 65 66 67 66 67 67 66 66 67 66 65 63 62 62 62 61 61 59 56 57 56 59 60 60 60 60 59 58 57 56 54
78 77 75 76 78 77 74 74 72 71 69 67 66 63 62 63 62 63 66 65 67 65 64 63 62 60 60 60 59 59 56 56 56 57 56 56 56 55 55 57 57 56 54
75 76 76 74 76 76 60 63 70 72 70 70 69 69 70 68 63 61 62 62 65 66 64 61 60 58 59 60 61 58 56 55 52 58 58 55 57 54 55 54 57 56 55
73 74 74 75 74 71 59 60 65 73 72 71 71 71 72 71 69 69 63 64 63 63 64 66 62 62 61 60 62 60 59 59 56 58 58 52 54 52 55 56 56 55 54
71 72 72 71 72 68 57 57 61 75 73 72 72 72 71 70 65 71 70 67 66 65 68 70 66 66 66 67 64 64 63 60 59 60 60 52 53 51 53 55 56 54 54
71 71 72 71 71 69 56 58 63 75 72 71 69 65 71 69 56 58 70 67 66 65 59 57 58 58 58 58 62 69 69 67 65 63 63 62 59 58 59 60 60 55 53
71 71 71 70 63 69 52 54 60 75 72 72 70 67 54 58 53 55 70 69 67 68 69 68 66 63 66 64 63 69 72 68 65 61 66 63 62 62 58 65 64 62 60

GFSMA_sfc_temp_024.txt.gz
Temp
81 84 83 81 81 81 73 71 70 70 73 79 79 81 83 82 83 82 78 82 81 81 81 82 81 81 81 81 81 80 80 80 80 80 80 80 79 79 79 79 79 79 79
82 82 80 81 80 81 76 73 72 70 70 71 79 81 82 82 82 82 83 80 81 81 81 82 82 81 81 81 80 80 81 80 80 79 79 79 79 78 79 79 79 79 78
82 81 80 78 79 79 74 69 71 68 68 68 78 78 82 82 82 81 81 81 79 81 81 81 81 81 81 81 81 80 80 79 79 79 78 78 78 78 78 78 79 78 78
83 81 80 79 82 78 72 70 69 68 68 69 72 77 76 79 80 80 80 81 79 84 81 81 81 80 81 81 81 80 80 78 78 78 78 78 78 77 77 77 78 78 78
85 80 82 80 81 79 74 74 72 70 70 73 76 73 75 77 80 83 80 79 81 79 79 81 80 80 81 82 81 80 79 78 78 78 78 78 78 78 77 77 77 77 77
84 81 81 79 78 79 79 77 75 75 74 75 82 82 79 80 80 80 80 81 79 80 79 77 78 78 80 81 80 79 79 79 79 78 78 78 78 78 77 77 77 77 77
82 81 79 77 77 76 78 77 75 71 69 71 72 77 79 80 79 81 80 80 80 81 80 77 76 75 76 78 78 78 79 79 78 78 78 78 78 77 77 77 76 76 76
82 82 78 76 76 74 74 76 75 71 72 75 73 72 69 76 81 82 81 80 79 80 81 79 76 75 74 73 75 77 78 79 79 79 79 77 77 77 76 76 76 76 75
84 82 80 78 76 75 73 74 74 73 70 72 76 71 67 66 74 76 76 76 77 76 78 78 77 76 75 75 76 77 78 77 79 79 79 78 77 76 76 76 75 75 75
84 83 80 79 76 75 74 74 74 74 73 70 73 75 74 73 68 67 72 74 76 76 76 75 76 76 76 75 78 77 77 76 77 78 79 79 78 76 76 76 76 75 74
82 82 79 79 77 75 75 74 74 73 73 71 71 70 70 73 73 69 68 71 74 77 77 74 76 76 76 75 75 76 76 77 76 77 77 79 78 77 77 77 76 76 76
78 77 80 77 77 75 75 74 75 74 72 72 72 71 69 68 69 69 68 70 72 75 74 73 73 73 73 73 73 73 75 75 77 74 74 76 76 77 78 78 78 78 78
78 75 76 76 77 76 76 76 74 74 73 72 73 71 70 72 71 71 70 70 70 72 72 73 72 71 73 72 73 72 72 71 70 70 71 71 72 73 74 75 76 77 78
77 77 77 77 77 78 79 78 77 76 76 74 74 73 72 73 72 71 70 68 67 69 70 73 73 72 72 71 72 71 68 69 68 68 68 68 68 69 70 71 72 73 74
78 77 77 76 76 77 78 77 74 75 75 74 75 74 73 71 72 72 72 72 69 65 67 71 71 72 69 69 69 68 66 67 67 66 66 66 67 68 68 69 69 69 69
76 75 74 75 75 75 76 75 73 73 71 71 72 73 71 71 73 73 72 72 72 69 66 70 69 69 68 66 67 66 65 65 65 64 64 64 64 64 65 65 66 66 67
75 74 73 73 73 72 74 73 73 74 73 72 72 72 72 73 72 72 73 72 71 70 67 68 69 66 63 63 63 63 63 62 62 63 63 62 61 62 62 63 63 63 64
75 74 73 74 74 73 72 72 71 71 70 69 68 70 70 71 70 70 71 70 70 70 68 66 67 61 61 62 61 59 60 61 60 62 61 60 59 59 58 58 58 58 58
75 75 74 74 72 71 70 70 70 68 67 67 67 66 66 68 66 67 69 70 70 69 69 67 62 62 60 60 59 59 58 58 60 62 61 61 60 59 58 57 56 54 53
74 75 74 73 73 73 70 70 69 68 67 66 65 64 65 65 66 66 67 66 66 66 65 63 61 61 60 61 60 57 55 57 56 59 60 59 59 60 59 58 57 56 54
75 75 75 75 74 72 69 68 69 68 67 66 66 65 63 63 63 64 66 65 66 65 63 61 59 59 59 59 58 57 55 55 55 56 55 55 55 54 54 56 57 57 55
74 75 74 73 71 70 60 62 67 68 67 66 66 67 66 65 63 63 63 63 64 65 62 61 60 59 59 59 59 57 55 55 53 58 56 54 56 53 54 54 57 56 55
73 73 72 71 69 66 59 60 63 69 68 68 68 68 69 68 66 66 64 64 63 63 64 64 61 61 60 60 60 58 58 58 55 57 56 52 55 52 55 55 56 55 54
71 71 70 70 67 63 58 57 60 69 68 66 65 68 66 63 60 65 63 60 59 59 61 64 61 61 59 63 62 62 60 57 58 58 59 52 53 52 54 55 56 55 54
69 70 70 70 67 63 56 55 62 69 67 66 64 59 66 63 57 57 64 61 59 59 58 58 58 58 59 60 60 63 59 58 58 58 59 58 55 53 53 54 55 55 54
68 70 68 66 61 62 53 53 58 71 67 66 64 61 55 55 54 55 67 65 62 63 63 61 60 59 63 61 62 61 61 59 59 57 59 57 56 56 52 57 56 54 52

GFSMA_sfc_temp_027.txt.gz
Temp
73 74 71 72 73 73 72 69 69 69 70 72 71 72 74 76 76 76 75 81 79 81 82 82 81 81 81 80 80 80 80 80 80 79 80 80 79 79 79 79 79 78 78
74 73 70 72 72 73 70 68 68 69 69 70 70 71 71 74 76 75 77 78 80 81 81 81 81 81 81 81 80 80 80 80 80 79 79 79 78 78 79 79 79 79 78
75 75 73 72 73 72 71 70 69 69 68 69 69 70 72 75 75 75 75 75 78 81 81 81 80 81 81 81 81 80 80 80 79 79 78 78 78 77 78 78 79 78 78
76 74 73 72 70 70 69 67 68 66 66 66 68 68 70 74 76 76 75 74 75 79 80 81 80 80 81 81 81 80 79 79 78 78 78 78 78 77 77 77 78 78 77
77 74 74 73 72 72 68 67 67 66 66 67 68 69 71 72 74 78 77 76 76 75 75 80 80 80 81 82 81 81 80 78 78 78 78 78 78 78 77 77 77 77 77
74 72 74 74 71 70 69 68 67 67 67 70 72 73 70 74 75 74 76 79 76 76 75 75 78 79 80 81 81 81 80 79 78 78 78 78 78 77 77 77 77 77 77
72 71 73 72 72 71 71 70 70 69 68 69 68 66 70 72 74 77 76 75 76 78 76 74 74 75 77 79 79 79 80 80 78 78 78 77 77 77 77 77 76 76 76
71 73 72 71 72 70 70 70 70 68 67 69 65 63 63 65 71 73 74 72 73 75 76 76 74 73 73 74 77 79 78 79 79 79 78 77 77 77 76 76 76 76 76
75 74 74 71 71 70 69 69 69 68 67 68 70 66 63 61 64 69 70 71 71 72 73 75 73 73 73 72 74 75 77 77 78 79 79 78 77 76 76 76 76 75 75
75 75 72 73 71 70 69 70 70 69 68 66 68 71 69 68 62 62 66 70 71 72 73 71 72 72 72 72 75 75 75 73 75 77 78 78 78 77 76 76 76 76 75
73 74 72 72 71 70 70 70 69 69 68 67 67 67 67 68 68 64 62 64 69 71 73 72 73 71 72 72 72 71 72 71 73 74 76 78 78 78 77 77 77 77 76
70 72 73 71 71 70 70 70 70 69 68 68 69 69 67 66 66 66 63 64 64 67 69 70 70 69 71 70 75 71 72 72 72 72 73 73 74 77 78 78 78 78 78
69 70 71 70 70 71 71 70 70 69 69 68 68 68 68 68 68 68 65 63 63 66 67 68 69 69 72 71 71 72 72 71 71 69 69 70 71 72 72 74 76 77 77
69 70 70 70 71 72 71 71 69 69 69 68 69 68 68 69 69 69 66 64 63 63 65 65 69 68 70 69 71 71 69 69 68 68 68 68 68 69 69 70 71 71 72
71 70 70 70 70 71 71 70 69 69 69 69 68 68 67 68 70 70 69 67 64 60 61 65 65 67 67 67 67 66 66 67 66 66 65 66 67 68 68 68 68 68 69
72 72 72 71 69 70 70 69 69 69 68 68 69 68 69 69 69 69 68 68 68 64 61 65 65 66 65 65 66 64 65 65 65 64 63 63 64 65 65 65 66 66 66
71 72 71 71 70 68 68 67 67 67 66 66 68 68 68 68 67 67 67 67 66 66 63 65 65 64 63 62 61 62 62 61 61 63 62 61 60 61 61 62 62 63 63
71 72 69 69 68 69 67 66 65 65 65 64 65 66 66 67 65 65 66 66 65 65 63 62 63 60 60 59 59 59 60 60 60 62 61 61 59 59 58 57 57 57 58
68 68 68 66 65 68 68 68 66 64 64 64 63 63 63 65 63 65 64 64 64 64 64 63 61 61 59 59 57 58 57 58 59 62 61 61 60 59 58 57 56 54 54
68 67 66 66 64 65 68 68 67 64 64 61 60 60 59 60 63 63 62 62 62 62 61 61 60 59 59 60 59 56 54 56 55 57 59 58 59 60 59 58 58 56 54
69 67 66 64 64 64 66 67 67 65 63 61 59 59 59 63 64 63 60 60 61 60 59 58 59 58 58 58 57 56 54 54 55 55 54 54 54 54 55 57 58 57 56
69 66 63 63 61 64 59 62 66 66 65 64 60 59 59 61 62 63 62 62 62 59 58 57 58 57 57 58 57 56 54 54 52 57 54 52 54 51 50 51 58 57 56
69 64 62 61 59 57 58 59 64 63 64 65 64 59 61 62 59 57 59 59 60 61 61 62 56 58 58 59 58 56 57 54 53 54 52 51 53 52 53 52 56 56 55
68 68 63 59 56 56 56 56 62 61 58 57 57 59 56 55 55 57 55 54 53 54 55 58 55 54 55 57 57 56 54 52 52 53 54 50 48 50 53 50 56 55 54
67 67 65 61 55 53 54 54 59 59 57 55 55 54 55 54 56 58 56 54 53 54 57 57 57 58 59 59 58 57 53 51 50 51 53 49 48 47 48 48 50 55 54
65 64 61 57 57 52 52 52 56 59 56 55 54 53 56 53 53 54 56 54 52 52 54 54 54 55 56 56 58 52 50 50 50 49 51 51 49 48 46 49 49 49 48

GFSMA_sfc_temp_030.txt.gz
Temp
72 72 73 72 73 74 72 69 70 71 70 71 72 72 73 74 73 74 73 80 80 81 81 82 81 81 81 80 80 80 80 80 79 79 79 80 79 79 79 79 79 79 78
72 72 69 69 70 71 70 69 68 68 68 69 71 71 72 72 74 74 75 74 80 80 81 82 81 81 81 81 80 80 80 80 80 79 79 79 78 78 79 79 79 78 78
72 73 70 70 70 70 70 69 68 68 67 68 68 69 70 72 74 75 74 74 76 81 81 81 81 80 81 81 80 80 79 79 79 79 78 78 77 77 78 78 79 78 78
74 73 71 70 71 70 69 68 68 67 65 65 66 68 70 71 73 74 74 74 74 78 80 80 81 80 81 81 81 80 79 79 79 78 78 78 78 77 77 77 78 78 77
76 74 73 72 71 70 68 68 67 65 65 65 66 67 69 70 73 76 75 74 75 75 75 79 79 80 81 82 81 81 79 79 78 78 78 78 78 77 77 77 77 77 77
74 71 72 71 70 70 68 67 66 65 66 67 71 71 70 71 71 71 74 78 76 74 74 74 75 79 80 81 81 80 80 79 78 78 78 77 77 77 77 76 76 76 77
72 70 70 71 71 69 69 68 66 66 66 67 67 66 67 70 70 72 73 75 74 72 73 73 72 72 75 79 79 80 79 80 79 79 78 77 77 77 77 77 76 76 76
72 71 71 71 71 69 68 68 68 66 67 68 65 63 61 65 69 71 72 71 73 72 73 74 73 72 72 73 76 79 79 79 79 79 78 77 77 76 76 76 76 76 76
74 72 71 69 69 69 68 68 68 67 65 66 68 64 61 60 63 66 69 70 71 70 71 72 72 73 72 71 74 76 78 75 77 78 78 78 76 76 76 76 75 75 75
72 72 71 70 70 69 68 68 69 67 66 64 67 69 68 67 63 62 65 67 70 70 70 70 71 72 72 71 74 74 72 72 73 74 75 75 76 76 76 77 77 76 76
71 72 71 70 69 69 69 68 68 67 66 66 65 65 66 66 66 64 62 64 67 69 70 69 71 71 70 71 70 71 71 70 71 71 72 74 75 75 76 77 78 77 77
68 69 71 70 69 69 68 68 68 68 67 66 66 67 67 65 64 65 63 64 63 65 67 68 68 69 69 69 73 73 72 72 71 71 71 72 74 75 76 76 76 78 78
66 67 68 68 68 69 69 69 68 68 67 66 66 66 67 67 67 66 65 64 63 64 65 68 69 69 72 70 70 72 72 71 70 69 68 69 70 71 72 73 74 75 75
66 68 68 68 69 69 69 69 68 68 67 67 67 66 66 67 68 67 65 64 62 62 63 65 68 68 69 70 71 70 68 68 68 67 66 67 67 68 69 70 71 71 72
72 72 70 68 68 69 68 68 67 67 67 67 67 67 66 66 68 68 67 66 64 60 59 64 65 66 66 66 67 66 66 67 66 65 64 65 65 65 66 67 67 67 68
72 71 71 69 67 67 67 66 66 66 66 66 67 67 66 67 67 68 67 67 66 63 60 64 64 64 65 64 66 63 64 65 64 63 62 62 63 63 64 64 64 65 66
70 70 69 66 65 65 64 64 64 64 63 63 64 65 65 65 65 66 66 66 65 65 61 62 63 63 61 60 60 61 61 60 61 62 62 61 60 60 60 61 61 62 63
66 68 65 64 65 64 63 65 65 64 62 61 61 62 63 65 63 64 65 64 64 64 63 60 60 60 59 59 59 59 59 60 60 62 61 61 60 59 58 58 57 57 57
65 65 65 63 63 64 63 62 61 61 60 59 59 59 60 62 62 61 62 62 62 62 63 62 59 60 58 58 57 57 58 57 59 61 60 61 60 59 58 57 56 54 54
65 64 63 62 62 63 63 62 61 60 59 58 58 58 59 62 62 60 61 61 60 61 62 60 59 58 58 58 57 55 54 56 54 56 57 57 58 59 59 59 58 56 54
65 63 61 61 60 62 63 62 62 60 59 58 57 59 60 63 63 62 59 59 59 58 59 59 58 59 58 56 56 56 54 54 54 54 53 53 54 54 55 57 58 57 56
63 61 60 59 58 62 59 62 63 63 60 58 57 57 58 59 59 61 61 62 61 57 56 59 58 57 57 57 56 55 53 52 51 56 52 52 51 48 49 50 58 57 56
63 60 59 57 55 55 57 60 62 58 57 58 55 55 58 59 56 55 58 59 59 61 61 59 55 55 57 58 57 55 55 56 53 52 52 51 53 52 50 51 57 56 55
65 59 59 55 54 55 55 58 60 57 55 55 55 54 53 54 55 55 54 53 52 53 54 57 53 56 58 58 56 55 53 50 51 54 54 50 51 51 53 48 56 55 54
66 63 60 56 53 53 52 54 57 55 54 53 53 53 54 53 56 57 55 53 52 52 57 56 57 56 57 56 57 56 52 51 48 50 53 48 46 45 46 47 48 55 54
62 61 58 55 54 52 51 51 57 56 53 52 51 51 56 53 52 55 54 52 51 50 51 52 52 53 53 53 56 51 49 50 53 47 49 50 46 46 45 47 47 48 47

GFSMA_sfc_temp_033.txt.gz
Temp
69 71 72 72 73 72 72 71 71 71 70 71 72 72 72 72 72 72 73 79 80 81 81 81 81 81 81 80 80 80 80 80 79 79 79 79 79 79 79 79 79 78 78
70 70 70 69 70 70 71 70 69 69 69 68 70 71 71 71 72 73 74 73 80 80 81 81 81 81 81 81 80 80 80 80 80 79 79 79 78 78 79 79 79 78 78
71 71 70 69 69 69 70 69 68 68 67 67 67 69 69 70 71 73 73 73 75 80 81 81 81 81 81 81 81 80 79 79 79 79 78 78 78 77 77 78 79 78 77
70 71 71 70 70 69 69 68 67 66 66 65 65 66 67 70 70 71 72 73 73 76 79 81 80 80 81 81 81 80 79 78 78 78 78 78 77 77 77 77 77 77 77
73 70 71 71 70 70 68 68 67 66 64 64 65 65 66 67 70 73 72 73 73 74 73 78 80 80 80 82 81 81 80 79 78 78 78 78 78 77 77 77 77 77 77
73 71 70 71 70 69 68 67 66 66 65 66 68 69 67 68 69 70 72 74 73 73 73 73 73 77 80 81 80 80 80 80 79 78 78 78 77 77 76 76 76 76 77
71 69 68 70 69 68 68 67 66 65 64 65 65 65 65 68 70 71 72 71 72 73 73 72 72 72 73 78 79 79 80 79 79 79 78 77 78 77 77 77 77 76 76
70 69 68 69 69 68 68 67 67 66 65 66 64 63 62 64 67 69 69 69 70 71 72 72 72 72 72 72 73 78 79 79 78 75 78 77 77 77 76 76 76 76 77
72 71 70 69 68 68 67 67 66 66 64 67 66 64 60 60 63 67 68 68 69 69 70 71 72 72 72 71 73 73 77 77 78 77 76 74 75 75 76 76 76 75 75
70 71 70 70 68 68 67 67 68 66 65 63 66 67 66 66 62 61 65 66 68 68 69 69 70 71 71 70 73 74 73 72 73 73 74 74 74 74 75 75 75 76 75
69 70 70 69 68 67 67 67 67 66 66 64 64 64 64 65 66 63 62 64 65 67 68 68 69 70 71 71 70 72 72 72 72 73 72 73 74 74 75 75 75 75 75
67 67 69 68 68 68 67 67 67 67 66 65 65 65 64 64 64 63 62 63 63 65 67 67 68 70 69 69 72 72 73 72 71 71 71 72 72 73 74 75 76 76 77
65 66 67 67 67 68 68 67 67 66 66 65 65 65 66 66 66 65 64 63 63 64 66 67 68 70 70 69 70 72 72 70 68 68 68 68 69 70 70 71 73 74 75
65 67 68 67 68 68 67 67 66 66 66 65 66 65 65 66 67 66 65 63 62 62 63 65 67 67 67 67 69 69 67 68 67 66 66 66 66 68 68 69 69 70 71
72 70 70 66 66 66 66 66 65 65 65 65 66 65 65 65 67 67 66 66 64 60 60 64 65 66 65 66 66 65 64 66 65 64 64 64 65 65 65 66 66 66 66
69 66 65 65 64 64 64 64 63 63 64 65 65 65 65 65 65 67 66 66 66 63 61 64 63 63 63 63 65 62 63 64 64 63 62 62 62 63 63 64 64 65 65
65 64 64 64 63 63 63 62 62 62 62 61 63 63 63 64 64 65 66 66 66 65 62 62 63 62 60 60 60 61 61 60 61 63 62 61 60 60 61 61 61 62 62
64 63 63 63 63 62 62 64 61 60 60 59 60 61 61 64 62 63 63 63 65 65 63 60 60 59 58 59 59 58 59 60 59 62 62 61 60 59 58 58 57 57 57
63 63 62 62 62 61 60 60 59 58 58 58 58 59 60 62 62 61 60 60 60 62 62 60 58 59 58 58 57 57 57 56 58 61 60 61 60 59 58 57 56 55 54
63 61 61 61 61 61 61 60 59 57 57 57 58 60 61 59 58 59 59 59 61 62 61 59 58 57 57 57 57 55 54 55 54 56 57 58 59 60 60 59 58 57 55
62 61 60 59 59 61 61 60 59 57 56 56 56 57 58 62 63 62 59 58 58 60 60 59 58 57 57 56 55 55 53 54 54 54 52 52 54 54 54 56 58 58 56
60 60 58 58 57 60 58 61 61 58 57 56 54 54 56 58 58 61 61 62 60 57 59 59 58 57 57 57 56 54 53 53 52 55 52 52 50 50 50 53 58 57 56
62 59 57 56 55 54 57 59 61 57 56 54 53 54 56 57 55 54 58 58 59 60 60 59 55 57 57 58 56 54 54 55 53 54 53 51 53 51 49 49 56 56 55
62 59 56 56 54 54 55 57 59 55 54 54 53 52 52 53 54 54 53 52 51 52 53 55 56 57 59 59 58 57 56 52 51 52 53 49 52 51 52 47 56 55 54
61 60 58 57 54 53 52 55 56 53 52 51 52 52 53 53 57 56 54 51 50 51 56 56 56 56 56 56 55 53 51 50 50 52 55 47 45 44 48 45 47 55 54
60 59 57 56 55 53 51 51 55 54 52 51 50 51 55 52 53 54 53 51 50 49 50 52 51 51 51 51 55 49 53 52 52 50 54 51 44 45 45 45 46 47 46

GFSMA_sfc_temp_036.txt.gz
Temp
72 71 73 74 74 74 74 74 74 74 74 74 75 74 75 75 76 75 76 79 80 79 81 82 79 80 81 80 80 80 80 80 79 79 79 79 79 79 79 79 78 79 78
72 71 72 72 73 73 74 73 72 73 73 72 72 73 74 74 75 75 77 76 79 79 80 81 81 80 81 81 80 80 80 80 80 79 79 79 78 78 79 79 79 78 78
72 72 72 72 71 72 73 72 71 71 71 71 71 72 72 73 73 74 75 76 79 79 81 81 80 81 81 81 81 80 79 79 79 79 78 78 78 77 77 78 79 79 78
71 71 71 71 71 70 70 70 70 69 69 69 69 70 70 72 72 73 74 76 76 78 80 80 81 80 81 81 81 80 79 79 79 78 78 78 78 77 77 77 77 78 78
73 71 71 72 73 71 70 70 69 69 68 68 68 68 68 69 71 75 74 75 76 77 77 79 80 80 81 82 81 81 80 79 78 78 78 78 78 77 77 77 77 77 77
74 72 72 72 72 71 70 69 69 69 69 69 70 70 69 70 71 72 74 77 77 77 77 77 77 80 80 81 80 80 80 79 79 79 78 78 78 77 76 76 76 76 76
73 72 71 71 72 71 71 70 69 68 67 67 67 67 68 70 71 73 74 75 76 76 77 76 76 76 77 78 79 79 79 80 77 78 78 77 78 77 77 77 76 76 76
73 72 71 71 71 70 70 70 68 68 67 67 66 65 65 68 69 71 72 72 73 73 76 76 76 75 76 76 76 76 79 79 79 78 75 74 73 75 77 77 76 76 76
72 72 72 71 70 70 69 69 68 68 66 67 68 67 62 63 65 68 70 70 72 72 73 75 76 76 76 76 76 76 77 76 78 79 77 76 73 73 73 75 75 75 76
72 72 71 71 71 70 69 69 70 68 67 66 68 68 68 68 63 62 68 67 71 70 71 73 74 75 76 75 75 74 74 74 75 76 75 75 75 74 73 75 74 75 75
70 71 71 70 70 70 70 70 69 69 68 67 67 67 67 68 68 66 64 65 68 69 69 69 73 73 74 73 73 74 73 73 73 73 74 74 74 74 74 74 74 74 74
68 69 70 70 70 70 70 70 70 69 68 68 68 68 67 67 66 65 63 63 64 66 69 70 70 70 70 71 74 73 73 71 70 70 70 71 71 72 73 72 74 75 76
67 67 69 68 69 69 70 70 69 69 69 68 68 67 68 69 68 68 65 64 64 65 66 67 68 70 70 70 70 71 71 69 68 67 68 69 70 70 71 72 73 74 74
68 70 68 68 68 68 69 68 68 68 69 68 68 68 68 69 70 68 67 65 62 63 65 66 67 67 67 67 69 68 68 67 67 66 66 66 67 68 69 69 69 70 70
70 68 67 67 67 67 67 67 66 66 67 68 68 68 68 69 70 70 69 69 66 61 61 65 65 65 65 66 66 65 65 66 65 64 64 64 65 65 66 66 66 67 67
67 67 66 66 66 66 66 65 64 65 65 65 66 67 67 68 69 69 68 69 68 65 61 65 63 62 63 63 65 63 64 65 64 63 63 62 63 63 63 64 64 65 65
66 65 65 65 65 65 65 64 64 64 64 64 65 65 65 66 66 67 69 69 68 67 62 62 62 61 60 60 60 61 62 62 62 63 62 61 61 60 61 61 61 62 63
65 65 65 64 64 64 63 63 62 62 61 62 63 64 63 65 64 65 66 66 68 67 63 60 60 58 58 59 59 58 59 60 59 62 61 61 60 59 58 58 58 58 58
65 65 65 64 63 63 63 62 61 61 61 61 63 63 63 64 63 63 63 63 65 65 65 62 59 59 58 58 57 57 56 56 58 61 60 61 60 59 59 58 57 55 54
64 63 63 64 64 64 63 62 61 61 61 60 60 61 61 62 62 63 62 62 63 62 61 60 58 58 57 58 58 56 53 54 54 56 58 58 59 60 60 59 59 57 55
64 63 62 62 63 64 64 63 62 61 60 60 59 60 62 63 63 63 63 62 63 61 60 59 58 58 56 56 56 56 54 54 55 56 57 56 57 56 57 58 59 58 56
63 62 61 61 61 63 59 61 62 61 60 58 57 58 59 60 60 61 61 61 62 63 61 60 59 58 58 58 56 55 53 53 53 60 57 55 58 54 55 58 58 57 56
63 60 59 60 59 60 58 59 61 60 59 58 58 58 60 60 58 59 59 59 59 59 61 63 60 59 59 59 58 56 56 56 55 56 57 52 56 55 56 58 57 56 55
62 60 58 58 58 57 56 56 58 59 58 57 57 58 58 58 58 58 58 57 57 58 59 62 60 59 61 61 60 60 58 54 55 56 57 54 55 55 58 57 56 55 54
61 60 59 59 58 56 53 54 58 58 57 56 56 58 59 59 56 56 58 57 57 58 58 56 56 55 55 56 58 62 58 58 56 56 57 54 52 54 53 56 57 55 54
59 59 57 57 56 56 50 53 57 59 57 57 56 56 55 56 53 53 59 58 57 57 59 60 58 57 56 56 55 57 60 58 58 55 59 58 54 56 56 57 57 57 57

GFSMA_sfc_temp_039.txt.gz
Temp
75 74 73 78 80 86 85 81 82 84 84 84 83 84 84 85 86 87 87 81 80 80 81 82 81 80 81 81 80 80 80 80 80 80 80 80 79 79 79 79 79 79 78
73 82 80 79 84 85 85 84 81 80 81 82 83 83 83 84 85 84 88 88 80 80 81 81 82 81 81 81 80 80 81 81 80 79 79 79 79 78 79 79 79 79 79
78 80 82 83 85 84 82 82 81 82 81 81 81 82 83 82 83 82 85 86 87 80 80 81 81 80 80 81 81 80 80 80 80 79 79 78 78 78 78 78 79 79 78
80 78 82 83 82 82 82 76 81 81 81 82 80 82 82 82 82 82 83 84 86 88 84 80 81 80 81 81 81 80 79 79 79 79 78 78 78 78 77 77 78 78 78
80 79 81 82 81 78 77 79 79 77 75 80 80 81 80 81 82 84 83 83 84 85 88 84 79 79 81 82 81 81 79 77 77 78 78 78 78 77 77 77 77 77 77
80 80 78 80 80 79 82 81 79 79 80 81 80 80 79 81 82 82 83 85 85 85 86 85 87 87 80 81 81 80 80 79 76 76 78 78 78 77 77 77 77 76 76
79 80 82 80 81 79 81 80 80 77 76 76 75 79 80 81 81 83 84 85 85 85 86 86 81 82 88 79 79 79 80 80 79 77 75 75 74 77 77 77 77 76 76
80 81 80 80 80 81 79 79 77 73 72 77 76 76 75 79 81 82 83 81 83 85 85 85 86 83 83 84 83 79 79 79 79 78 77 75 75 75 74 75 74 75 76
80 79 80 80 79 79 80 78 77 72 71 71 75 73 72 73 77 73 74 75 78 81 82 82 83 84 84 84 81 80 76 75 77 79 78 77 75 74 73 73 73 74 74
79 79 78 79 79 80 77 78 77 74 71 70 70 72 76 77 72 71 75 71 72 72 76 82 82 83 83 83 80 76 74 73 75 76 76 76 75 75 74 74 74 74 73
78 78 78 78 78 80 78 76 75 74 71 70 70 71 69 73 75 72 70 72 71 70 70 72 79 79 77 75 76 74 73 72 72 73 73 73 74 74 74 74 73 73 73
78 77 78 75 74 75 76 78 76 75 73 71 71 72 72 70 73 73 70 67 68 69 71 72 73 73 73 75 75 73 72 71 70 70 70 71 72 72 73 74 74 73 73
78 75 75 72 72 73 76 77 76 77 76 72 72 72 73 74 74 74 72 68 65 67 69 68 68 69 70 70 71 72 71 69 68 68 68 69 70 71 72 73 73 74 74
76 75 75 75 73 73 75 75 72 71 75 77 75 74 75 74 75 75 68 66 63 65 66 65 66 67 67 69 69 69 69 67 67 66 66 66 67 68 69 69 70 70 71
77 75 75 74 75 75 75 74 71 70 70 71 73 75 77 76 78 75 73 72 70 63 63 66 64 64 66 67 68 68 68 66 66 65 64 64 65 65 66 66 66 66 67
74 74 74 74 74 73 74 74 74 73 73 72 72 71 70 73 76 79 76 72 72 70 63 65 62 62 64 64 66 66 66 66 64 64 63 63 63 63 64 64 65 65 66
74 73 73 73 73 72 73 73 72 73 72 72 73 71 70 72 72 74 74 75 69 68 63 62 62 62 61 61 61 64 64 64 64 63 62 61 61 61 61 61 61 62 63
74 73 73 72 72 72 72 72 71 71 71 71 71 69 68 71 68 72 72 69 70 72 66 61 60 59 59 59 60 59 60 62 61 62 62 61 60 59 59 58 58 58 58
73 74 73 72 72 72 71 71 71 71 70 69 70 69 68 72 69 67 68 69 68 68 70 64 60 59 59 59 58 58 57 57 60 62 62 61 61 60 59 58 57 55 54
73 73 73 72 72 72 72 71 71 70 69 69 69 68 67 67 70 69 68 67 66 66 64 61 59 58 58 58 59 57 55 56 54 57 59 61 62 61 60 59 59 57 55
72 72 71 72 72 73 74 72 71 70 69 69 68 70 68 66 63 64 73 70 70 67 63 61 59 58 57 57 57 57 55 56 57 64 62 63 69 67 66 62 61 58 56
72 71 71 72 72 74 60 62 69 70 69 68 67 68 69 68 64 60 61 61 64 70 67 66 62 60 61 59 58 56 55 57 56 66 64 61 67 62 65 64 58 57 56
67 65 69 71 71 70 58 59 64 70 69 68 67 68 70 69 68 70 63 63 62 62 64 69 65 64 63 64 64 59 61 58 57 61 66 57 61 59 67 63 57 56 55
66 64 64 67 69 66 56 57 61 69 68 67 67 68 67 66 64 68 68 68 67 67 68 71 68 67 68 68 67 67 64 58 61 64 63 61 61 62 67 67 57 56 55
68 66 67 65 64 62 54 55 64 69 67 65 66 65 68 67 56 58 68 66 66 67 58 55 55 55 55 55 59 70 69 64 65 66 66 67 63 66 67 67 65 56 55
67 63 60 62 58 60 51 52 62 70 66 67 65 64 54 62 53 55 67 67 66 66 68 68 68 64 64 61 60 66 69 67 68 67 65 65 66 68 65 68 68 66 64

GFSMA_sfc_temp_042.txt.gz
Temp
76 82 78 78 81 84 87 87 88 89 88 88 90 90 91 92 93 94 95 82 80 80 81 82 82 81 81 81 81 80 81 80 80 80 80 80 80 80 80 79 79 79 79
75 81 79 79 91 89 83 84 86 88 89 89 88 89 88 91 91 91 94 92 81 80 81 82 82 82 82 81 81 80 81 81 80 80 80 79 79 79 79 79 79 79 79
77 79 82 88 92 91 86 86 86 86 87 89 87 87 89 89 91 89 91 93 91 80 81 81 81 81 81 80 80 80 80 80 80 79 79 79 78 78 78 79 79 79 79
84 84 85 85 88 85 84 84 85 82 85 87 84 86 89 90 89 89 90 91 93 94 84 81 80 81 81 81 81 80 79 79 78 78 78 78 78 78 78 78 78 78 78
85 83 83 88 86 90 88 88 88 82 81 84 86 88 88 89 89 91 89 89 89 91 93 84 80 80 81 82 81 80 80 78 76 76 76 77 78 77 77 77 77 77 77
86 86 85 83 86 86 83 83 84 87 87 88 85 84 88 89 90 89 89 91 91 90 91 90 91 89 80 81 80 80 80 79 77 76 75 75 76 77 77 77 77 77 77
86 86 83 87 87 84 86 85 85 82 79 82 78 84 87 88 87 89 90 91 91 91 91 91 85 91 90 80 80 80 81 80 79 77 77 75 75 75 75 76 76 76 76
86 86 86 85 85 84 83 82 81 78 81 79 79 79 76 84 89 89 91 90 89 90 92 91 87 86 79 78 85 79 79 80 80 79 78 76 75 75 75 74 75 75 75
86 86 85 84 84 84 87 83 82 80 82 81 80 76 73 80 78 87 85 89 86 83 85 89 89 89 87 88 85 83 77 77 78 78 79 78 76 75 74 74 74 74 74
85 85 84 84 83 86 83 84 84 79 75 72 77 80 79 77 72 71 81 82 81 77 78 84 86 86 86 84 81 75 73 73 75 76 77 77 76 74 74 74 75 75 73
83 84 82 82 81 79 80 80 79 77 75 74 75 74 77 77 76 73 72 78 79 73 72 73 76 81 81 82 77 72 72 72 72 72 73 74 74 74 75 75 75 74 74
83 82 81 77 77 80 81 83 81 80 76 78 78 73 72 75 78 73 72 72 74 69 70 71 73 74 74 75 74 73 72 71 70 70 71 72 73 73 74 75 75 76 76
79 79 79 77 76 79 81 79 79 81 82 77 76 74 74 74 76 75 74 71 65 70 68 69 69 70 69 71 72 74 71 69 68 68 68 69 70 71 72 72 73 74 74
82 78 79 78 78 79 80 78 78 80 79 78 78 77 76 76 77 77 74 73 67 66 67 65 66 66 67 70 71 72 72 68 67 66 66 66 67 68 68 69 69 70 70
82 80 77 77 78 78 78 78 77 74 75 75 76 77 77 79 79 78 74 72 71 66 65 64 64 65 65 66 69 72 70 66 66 65 64 65 65 65 66 66 66 66 67
80 79 77 77 77 79 80 81 81 76 76 76 75 75 76 77 79 78 77 76 74 72 68 66 62 63 64 64 67 67 68 67 65 64 63 62 63 63 64 64 64 65 65
79 79 77 78 78 78 77 77 78 77 74 73 75 75 74 76 77 77 75 76 75 74 66 61 62 62 62 62 64 66 67 67 66 63 62 61 61 61 61 61 61 62 62
79 79 79 79 79 79 79 78 78 77 74 72 73 74 76 79 77 75 76 73 73 74 70 59 60 59 59 60 61 61 63 64 63 63 62 61 60 59 59 59 58 58 58
79 80 79 78 78 78 78 78 77 77 76 73 72 72 71 73 71 72 72 72 71 70 71 63 59 60 59 60 59 59 59 59 62 63 62 61 61 60 59 58 57 56 54
79 79 79 78 78 79 78 78 77 76 76 76 74 74 74 73 71 73 73 73 72 70 65 63 59 58 59 59 59 58 58 61 59 61 61 62 64 62 61 60 59 58 55
79 79 78 79 79 80 79 77 77 76 75 75 75 75 72 67 63 64 78 72 72 72 66 62 59 58 57 57 58 58 58 58 57 61 64 66 73 72 69 62 60 59 57
78 78 78 79 78 79 60 63 72 76 75 74 73 74 75 72 66 62 63 63 65 72 71 70 65 63 62 61 61 64 61 61 60 70 66 69 74 72 71 70 58 57 57
76 75 77 78 76 73 60 62 66 76 75 74 73 74 76 76 74 75 64 65 65 64 66 71 68 68 66 66 68 65 65 64 65 67 67 68 73 71 73 65 57 57 56
74 73 74 76 75 70 58 59 63 75 74 74 74 73 72 71 67 73 74 72 70 69 71 75 71 71 71 71 71 70 68 68 67 70 71 65 72 71 73 71 58 57 56
74 74 75 75 73 70 55 57 65 75 73 73 73 72 73 70 56 58 72 70 70 69 59 57 56 57 57 57 62 75 75 72 67 63 71 70 70 71 73 72 67 57 56
73 77 73 72 63 71 52 54 63 78 69 72 72 70 56 63 54 55 72 71 69 70 72 72 70 64 67 64 64 70 73 71 72 71 68 70 67 66 63 68 69 67 66

GFSMA_sfc_temp_045.txt.gz
Temp
78 77 76 76 79 83 76 85 88 87 90 90 91 90 87 86 90 87 83 82 81 81 81 82 82 82 81 81 81 81 81 81 80 80 80 80 79 80 80 80 79 79 79
75 75 75 77 78 80 81 80 83 88 88 88 90 90 89 90 87 88 93 83 81 80 81 82 82 82 81 81 81 81 81 81 81 80 80 80 79 79 79 80 80 79 79
75 76 80 85 76 77 83 82 84 83 85 87 82 85 84 87 92 84 86 86 82 81 81 81 81 81 81 81 81 80 79 79 79 79 78 78 79 78 78 79 79 79 79
75 79 78 85 90 91 89 84 81 84 82 82 82 87 85 86 84 84 88 91 86 86 81 81 81 81 81 81 81 81 79 78 77 77 78 78 79 78 77 78 78 78 78
84 80 84 88 86 89 84 84 83 85 83 80 82 80 86 84 84 87 86 89 88 89 85 81 81 80 81 82 81 81 79 78 77 77 77 77 77 76 77 78 78 77 77
83 82 83 84 85 84 83 86 80 83 86 84 84 87 84 83 82 82 90 92 84 85 91 90 83 86 81 81 81 81 81 79 78 77 77 77 77 76 76 76 77 77 77
83 84 81 83 83 83 84 84 84 83 86 87 83 85 82 82 86 85 87 92 91 86 91 91 91 90 83 80 80 80 81 81 79 79 78 77 76 76 75 75 75 75 76
86 86 84 84 85 83 83 84 83 81 80 82 77 75 74 82 79 87 84 89 91 91 91 91 89 87 86 86 79 79 80 81 80 80 79 77 76 76 76 75 74 74 75
87 87 86 86 85 85 88 82 82 79 76 78 80 77 72 72 75 84 81 79 79 86 91 88 81 72 82 80 82 81 79 79 79 79 79 78 77 76 76 75 74 74 74
87 87 86 85 84 86 80 84 81 80 78 77 77 78 82 79 72 71 78 80 81 81 79 83 78 81 78 77 75 73 73 73 75 77 77 76 76 75 75 75 75 75 74
85 85 84 82 81 79 80 81 81 80 77 74 74 75 75 79 81 73 68 71 76 73 75 77 78 75 75 72 71 72 73 72 72 73 73 74 74 75 75 75 76 76 75
83 83 81 81 79 81 80 80 81 81 79 78 76 80 79 73 76 77 72 69 69 69 70 69 70 70 71 72 73 72 72 71 71 71 72 73 73 74 75 75 75 75 75
82 81 80 81 82 80 81 80 80 80 79 77 78 77 79 77 78 75 73 68 68 70 67 67 69 70 71 72 74 72 70 69 68 68 68 69 70 71 72 72 72 73 73
80 80 81 81 81 81 81 81 79 79 79 79 79 78 77 78 79 77 75 69 66 68 68 64 66 66 67 69 70 72 68 68 67 66 66 66 67 68 68 69 69 69 70
85 79 79 78 78 78 79 81 81 78 80 79 78 79 77 77 78 77 76 73 72 64 64 65 63 65 66 66 68 69 67 66 66 65 64 64 65 65 66 66 66 67 67
81 78 78 78 78 78 79 80 81 77 77 80 79 78 77 77 77 78 77 77 75 73 67 65 63 63 64 64 67 66 66 66 65 64 63 63 63 63 64 64 64 64 65
82 81 81 81 80 79 79 79 78 76 73 73 75 75 76 78 75 77 77 76 75 74 65 61 62 62 62 62 63 66 69 68 67 63 63 62 61 61 61 61 61 62 62
82 82 82 81 81 81 81 81 80 76 73 72 74 74 75 78 74 75 77 74 74 75 72 59 59 59 59 60 62 63 65 66 67 63 62 61 61 60 59 59 59 58 58
82 82 81 80 81 81 80 80 80 78 75 73 74 74 73 73 72 73 74 73 73 73 73 65 58 59 58 59 58 60 60 62 65 63 62 61 61 60 60 59 58 56 55
82 81 81 81 81 81 80 80 79 78 79 77 75 74 73 72 72 75 73 73 71 67 65 62 59 58 58 59 59 58 60 63 63 66 62 64 64 62 61 60 60 58 55
82 81 81 81 81 82 80 79 79 78 77 77 76 75 72 68 65 66 77 73 73 69 62 59 58 58 57 58 59 63 62 66 64 62 64 66 68 68 66 61 61 59 57
81 81 81 82 81 81 64 65 73 77 77 76 75 76 73 71 66 63 65 64 69 72 70 67 66 65 64 66 67 66 67 64 59 70 66 65 70 67 70 68 59 58 57
78 78 79 80 77 74 63 64 68 78 77 76 75 76 78 78 75 75 66 67 66 65 67 70 66 67 66 66 66 67 67 68 66 69 67 64 73 67 69 63 58 57 57
76 75 77 76 76 71 60 61 64 77 76 76 76 75 73 72 68 73 72 69 68 67 68 73 69 68 68 70 71 72 70 69 70 70 71 65 70 67 66 63 59 58 57
74 74 77 74 74 71 58 58 61 77 75 75 74 70 73 71 57 58 73 69 68 67 60 58 59 58 59 60 64 74 69 72 70 69 73 66 68 66 65 63 63 58 56
75 75 74 75 67 72 56 55 61 78 73 72 73 71 57 64 55 56 73 72 70 71 73 69 68 63 66 66 66 71 72 71 72 70 68 68 69 71 67 67 68 63 62

GFSMA_sfc_temp_048.txt.gz
Temp
80 78 77 77 77 79 77 73 70 69 75 81 83 82 83 83 84 83 82 82 80 81 81 82 82 82 81 81 80 80 81 81 80 80 80 80 80 79 80 80 79 79 79
78 77 73 75 75 78 75 76 75 74 75 84 83 82 82 83 84 84 80 78 81 81 81 82 82 82 82 81 80 80 80 81 80 80 79 79 79 79 79 79 79 79 78
78 77 74 76 75 71 70 72 77 77 77 80 81 81 83 84 84 83 82 81 82 81 80 81 81 81 81 82 81 80 80 80 79 79 79 78 78 78 78 78 79 78 78
79 76 76 78 77 72 69 68 75 76 77 77 76 78 75 81 82 82 82 83 81 84 81 81 80 80 80 81 81 81 80 78 78 78 78 78 78 77 77 77 78 78 78
79 75 78 79 78 75 72 71 77 76 76 76 77 75 77 78 80 86 82 82 81 82 81 81 80 79 80 82 82 81 80 78 78 77 78 78 78 77 76 76 77 77 77
78 78 76 78 79 77 77 76 76 76 76 78 79 79 77 80 80 79 80 84 82 83 83 79 76 75 81 81 81 81 80 79 78 78 78 77 77 77 76 76 76 76 77
77 76 75 77 77 77 77 77 76 76 76 77 75 73 75 79 81 81 81 82 83 84 81 81 76 79 81 80 80 80 80 80 79 78 78 77 77 76 76 76 75 75 75
76 78 77 75 76 76 77 77 77 75 77 77 72 72 69 74 78 81 74 80 80 81 82 82 76 75 72 73 76 79 79 80 80 79 78 78 77 76 76 75 75 74 74
76 77 81 79 80 78 76 78 79 77 72 75 76 71 68 67 70 74 73 74 76 73 78 76 75 73 72 70 72 76 78 78 79 80 79 78 76 76 76 76 75 75 74
81 82 82 80 78 79 77 77 78 76 75 72 75 73 73 72 68 67 69 72 72 73 72 74 74 72 69 70 73 73 73 73 75 76 76 75 75 75 75 75 75 75 74
81 82 79 79 78 77 77 78 77 76 75 73 73 73 72 72 72 69 67 68 70 71 71 71 71 72 71 70 70 71 72 72 72 73 74 75 75 75 75 75 76 76 76
78 80 79 78 78 77 76 76 76 76 76 75 73 73 71 71 70 70 68 67 65 66 67 69 69 69 70 70 72 73 71 71 70 71 71 72 73 74 74 75 75 75 75
74 74 75 76 75 77 77 77 76 76 76 74 73 73 73 72 74 72 70 66 65 66 66 66 68 69 70 70 70 71 70 69 68 68 68 69 70 71 71 72 72 73 73
75 76 76 77 76 77 77 77 77 76 76 74 74 73 73 74 73 72 68 66 64 66 67 63 65 66 68 69 69 69 67 68 67 66 66 66 67 67 68 68 69 69 69
78 77 75 75 76 75 77 78 74 73 74 74 74 74 73 73 73 73 73 71 68 64 62 64 62 65 65 67 67 64 64 66 66 65 64 64 65 65 65 66 66 66 66
75 76 75 75 75 76 77 76 75 73 73 73 73 72 72 73 73 73 73 72 71 69 63 64 62 63 64 64 66 64 64 64 65 64 63 63 63 63 63 64 64 64 64
75 75 76 76 75 77 78 75 74 73 72 72 73 73 73 73 72 72 72 72 71 68 61 60 61 61 61 61 62 64 66 65 62 63 63 62 62 61 62 62 62 62 62
80 79 78 78 78 77 77 76 74 73 72 71 71 71 71 74 71 72 73 71 70 70 63 58 59 58 58 59 60 62 63 64 63 63 62 62 61 60 60 59 58 58 58
80 79 78 77 77 77 77 76 75 73 72 72 70 70 69 71 70 71 71 70 69 68 66 60 57 58 58 58 58 59 60 61 63 64 63 62 61 60 60 59 58 56 55
79 78 78 78 78 77 76 76 75 74 73 71 69 68 68 67 67 71 70 68 66 64 63 60 58 58 58 58 58 58 58 60 60 64 62 63 63 62 61 60 59 58 56
79 79 78 79 79 75 74 69 75 74 72 71 70 69 67 67 66 65 70 68 65 63 61 58 57 57 57 57 58 61 60 60 59 60 58 60 59 59 59 61 60 59 57
78 79 79 78 74 76 64 65 70 73 73 72 70 69 69 69 66 65 65 65 67 65 63 63 61 61 60 61 62 63 62 60 58 62 62 62 64 61 63 57 60 58 57
77 77 75 73 71 69 65 65 65 74 72 72 70 69 72 71 69 69 66 66 64 64 66 66 63 63 62 64 63 62 62 62 60 63 62 59 63 60 60 58 59 58 57
75 75 75 73 71 67 63 61 63 74 72 72 70 69 68 66 60 67 65 63 62 62 64 67 61 61 61 62 63 64 64 64 64 64 64 58 62 60 61 58 59 58 57
74 74 75 73 70 67 60 60 60 73 71 70 68 65 68 66 57 58 66 62 61 61 60 59 59 60 60 61 62 63 62 61 60 60 63 60 61 59 58 55 57 58 56
73 74 74 73 68 69 57 57 60 69 70 69 67 64 58 60 56 56 68 65 62 61 63 62 61 60 61 63 65 62 61 59 59 57 60 60 60 62 58 61 57 55 54

GFSMA_sfc_temp_051.txt.gz
Temp
73 73 73 73 74 74 72 73 71 70 70 72 74 78 81 81 80 80 77 83 81 81 81 81 81 81 81 80 80 80 80 80 80 79 80 80 79 79 79 79 79 79 79
72 72 71 71 74 74 72 72 72 72 71 71 72 78 81 81 80 81 77 78 82 81 81 82 82 82 81 80 80 80 80 80 80 79 79 79 79 78 79 79 79 79 78
74 72 72 73 73 71 71 70 70 72 71 72 73 74 78 80 82 81 79 78 80 81 81 82 81 81 81 81 81 80 80 80 79 79 79 78 78 78 78 78 78 79 78
73 72 70 73 73 71 70 69 68 68 71 72 71 73 74 75 76 79 79 80 78 81 81 81 81 80 81 81 81 81 80 79 79 78 78 78 78 77 77 77 78 78 78
74 71 71 74 74 71 70 70 69 68 69 71 72 72 74 73 74 81 78 80 79 80 80 80 81 80 81 82 81 81 80 79 78 78 78 78 77 77 77 77 77 77 77
74 72 72 74 73 72 71 70 69 70 71 71 75 75 71 73 75 74 76 80 79 81 81 77 75 76 80 81 80 81 81 79 78 78 77 77 77 77 76 76 76 76 76
74 72 72 73 73 72 73 72 71 70 70 71 69 68 70 73 73 74 73 76 78 79 81 75 72 73 73 77 77 78 80 80 79 78 78 77 77 77 76 76 76 76 75
74 74 73 73 73 72 71 72 72 70 70 70 68 66 64 67 70 72 71 73 72 75 76 74 72 72 70 70 73 74 75 79 80 79 78 77 77 76 76 76 76 75 75
76 75 74 74 74 73 71 71 71 71 68 69 70 67 63 61 65 68 68 69 71 70 71 72 72 71 70 69 72 74 73 74 75 78 78 76 74 75 75 76 75 74 74
76 76 75 74 72 72 71 72 73 70 69 67 69 70 69 68 63 62 67 68 69 69 70 71 70 70 68 68 73 74 72 73 74 74 75 76 75 75 75 74 75 75 74
74 75 73 72 71 71 71 71 71 70 70 69 68 68 67 67 67 64 61 65 67 68 69 69 70 70 70 70 70 72 72 72 73 74 74 75 75 76 76 76 76 76 76
71 73 73 71 71 71 71 71 71 71 70 70 69 68 67 65 65 65 63 64 64 65 66 68 69 69 69 70 72 73 72 71 70 70 71 72 73 74 74 75 75 74 75
69 70 71 70 70 70 71 71 70 70 70 69 68 68 68 68 68 67 65 64 64 65 65 65 66 68 68 68 70 71 70 69 68 68 68 69 70 70 71 71 71 72 72
69 70 71 71 71 72 71 71 69 69 69 69 69 69 68 69 69 68 67 65 63 64 64 62 65 66 67 67 69 69 67 68 67 66 66 66 67 68 68 68 68 68 68
72 70 73 73 74 73 71 69 67 68 68 68 68 68 68 68 69 69 68 68 64 61 61 63 62 64 65 64 65 64 64 66 66 65 64 65 65 65 65 66 65 65 65
70 70 71 71 71 72 70 68 67 70 67 67 67 67 67 68 69 69 68 68 67 65 61 62 61 62 63 64 65 62 63 65 65 64 63 63 63 63 63 64 64 64 65
69 73 73 71 70 69 69 67 66 67 67 69 68 66 66 67 67 68 68 67 65 62 59 59 60 60 60 61 62 63 62 60 62 63 63 62 61 61 61 61 61 61 63
72 74 73 70 69 70 68 67 67 70 69 67 68 67 67 70 66 67 68 64 64 61 61 57 58 58 58 59 60 60 60 61 58 63 63 62 61 60 60 59 58 58 59
70 70 70 69 69 69 68 67 67 65 64 63 62 62 62 64 65 65 63 62 61 62 62 59 56 58 57 58 57 58 57 58 59 64 63 62 61 60 60 58 57 56 55
70 69 69 69 68 67 66 68 67 64 63 62 61 61 61 61 62 64 62 60 61 60 61 59 58 57 57 58 57 57 55 59 57 62 63 60 61 62 61 60 59 58 56
70 70 69 68 66 67 68 65 67 65 63 62 61 62 61 66 65 65 63 59 58 58 58 57 56 56 56 56 55 56 54 54 54 54 53 53 53 53 55 59 60 59 57
70 70 68 66 65 69 62 63 66 64 64 63 61 61 62 64 64 64 63 64 61 58 56 55 54 54 54 55 57 55 55 54 52 56 55 55 56 54 54 51 59 58 56
69 67 66 64 62 60 61 60 66 65 63 62 60 61 64 65 62 60 62 62 62 63 62 60 57 57 59 58 58 56 58 57 56 56 56 54 57 55 54 55 59 57 56
68 66 65 63 61 60 61 61 62 65 62 61 61 60 58 56 57 59 57 56 56 56 59 61 57 56 56 56 57 57 58 58 57 58 58 53 55 54 52 51 59 57 56
67 67 66 63 61 58 59 58 61 63 61 60 59 60 59 56 57 59 58 55 54 55 58 58 58 59 60 60 59 58 54 53 52 57 54 55 54 53 52 50 55 58 56
66 67 65 64 62 59 56 57 58 60 60 58 57 56 58 57 55 56 57 56 54 55 56 56 56 57 58 58 60 55 53 51 50 53 61 59 57 53 51 52 52 52 50

GFSMA_sfc_temp_054.txt.gz
Temp
69 69 70 72 71 72 71 70 70 69 70 72 73 74 76 77 75 73 72 80 79 79 82 82 81 81 81 80 80 80 80 80 80 79 79 80 79 79 79 79 79 79 78
71 70 70 70 71 71 70 70 70 70 70 71 72 73 75 78 75 75 77 76 81 81 81 82 81 81 81 81 80 80 80 80 80 79 79 79 78 78 79 79 79 79 78
71 70 69 69 69 71 70 69 69 70 70 71 71 72 73 75 77 75 78 77 80 82 81 81 81 80 80 81 81 80 79 79 79 79 78 78 77 78 78 78 78 78 78
72 70 69 70 71 69 68 67 67 67 69 70 71 71 72 73 74 73 74 74 78 81 82 81 81 81 81 81 81 81 80 79 78 78 78 78 77 77 77 77 77 77 77
74 70 69 70 72 70 69 68 69 67 67 69 71 71 71 71 72 78 75 76 76 78 77 80 80 80 81 83 82 81 80 79 78 78 78 78 78 78 77 77 77 77 77
73 70 70 70 71 71 70 69 69 68 69 70 72 73 71 72 72 72 74 74 72 77 75 77 75 78 80 80 81 81 81 80 79 79 78 78 78 78 77 77 76 77 76
72 70 70 71 71 70 71 72 70 69 69 69 68 68 69 71 71 72 72 73 72 73 73 72 71 72 73 78 78 79 80 80 80 79 78 77 78 77 77 77 76 76 76
72 72 70 70 71 71 71 71 70 69 69 69 67 65 63 66 68 69 69 70 70 72 72 72 71 71 69 71 73 77 76 76 77 78 77 76 76 76 76 76 76 75 75
72 72 72 71 71 71 70 71 70 69 67 68 69 66 62 61 63 66 68 68 69 69 70 71 71 70 69 71 73 74 75 74 75 76 77 75 75 74 74 74 74 72 74
72 73 73 71 71 71 71 70 71 69 68 67 68 69 68 66 62 60 67 68 69 69 68 68 69 69 69 68 71 74 73 73 75 75 75 75 75 75 75 75 75 75 74
74 74 72 71 71 70 70 70 70 69 69 68 67 66 66 66 66 63 60 65 66 68 69 70 69 69 69 70 70 73 73 73 73 74 75 75 75 76 76 75 75 75 75
69 71 71 70 69 70 70 69 69 69 69 68 67 67 66 64 63 63 63 63 64 65 66 67 69 68 68 69 72 73 72 71 71 71 72 73 73 74 74 74 74 74 74
67 68 69 69 69 70 70 69 69 68 68 67 67 67 67 67 67 65 65 64 63 65 64 65 67 67 67 68 69 71 71 69 68 68 69 69 70 70 70 71 71 71 72
67 68 69 70 70 70 69 68 67 68 68 67 67 67 67 67 68 67 65 64 63 63 63 62 64 66 66 66 69 69 67 68 67 66 66 66 67 68 68 68 68 68 69
69 69 70 70 70 70 69 67 66 66 66 66 66 66 66 67 68 68 66 69 64 61 60 62 62 64 64 64 65 64 64 66 66 65 65 65 65 65 65 65 65 65 66
68 68 69 68 68 68 67 66 65 66 65 65 65 66 66 66 67 67 66 66 67 64 60 62 61 62 63 63 65 62 63 65 65 64 63 63 63 63 64 63 64 65 66
68 68 69 68 66 66 66 64 64 65 65 64 64 64 65 66 65 66 66 65 64 62 59 59 60 60 60 60 61 61 59 57 59 64 63 62 62 62 62 61 62 63 63
68 68 68 67 66 66 65 65 65 64 63 62 62 62 63 67 64 64 63 61 60 60 62 58 58 58 58 59 59 59 58 59 57 63 62 62 61 60 60 59 59 59 59
67 67 67 66 65 65 65 64 63 62 60 60 60 61 61 63 61 61 61 59 60 63 62 59 56 58 57 58 57 57 56 57 58 64 62 62 61 60 59 59 58 56 55
67 66 66 66 65 64 65 64 62 60 60 60 60 60 60 62 61 60 59 58 59 61 60 59 58 57 57 58 57 56 55 54 53 61 60 59 60 62 60 59 59 58 55
68 67 65 64 63 65 66 63 62 60 59 59 59 61 61 64 65 63 59 56 57 58 59 58 57 56 56 55 56 56 53 52 53 52 51 52 52 52 54 58 60 59 57
67 66 64 63 62 66 61 63 63 61 60 59 58 59 60 62 62 63 63 62 59 57 55 55 53 53 52 54 55 54 52 51 51 54 52 52 53 51 52 51 58 58 56
66 64 62 61 60 60 59 61 64 61 59 59 59 58 61 62 60 59 61 61 62 62 61 57 54 54 54 56 55 54 54 56 54 54 54 52 53 53 53 53 59 57 56
65 63 62 60 59 60 59 59 62 60 58 58 59 57 56 55 57 57 56 55 55 56 57 60 58 56 56 55 57 57 56 55 55 55 55 52 53 53 51 50 59 57 56
65 64 62 61 60 57 56 57 60 59 58 57 57 57 57 55 57 57 56 54 53 54 57 57 57 57 58 58 56 56 51 52 51 56 55 54 53 52 50 49 51 58 56
65 65 64 62 60 58 55 56 59 59 56 55 54 54 59 57 55 55 56 54 53 53 54 54 54 56 56 56 58 54 52 50 49 52 59 58 55 51 50 53 48 50 50

GFSMA_sfc_temp_057.txt.gz
Temp
67 67 67 70 71 71 71 70 69 69 69 71 72 74 74 74 74 72 72 81 80 80 82 82 81 81 81 80 80 80 80 79 79 79 79 79 79 79 79 79 79 79 78
69 68 68 70 70 70 70 70 69 69 69 69 71 73 74 74 74 74 73 72 79 80 80 81 82 81 81 80 80 80 80 80 80 79 79 79 78 78 78 79 78 79 78
70 70 69 68 69 70 69 68 68 69 69 70 70 71 72 73 75 73 74 73 76 81 80 81 81 81 81 81 81 80 79 79 79 79 78 78 77 77 78 78 79 78 78
71 69 68 68 69 69 68 67 66 66 66 67 68 70 70 72 73 72 73 73 74 78 80 81 80 80 80 81 81 80 80 79 78 78 78 78 78 77 77 77 77 77 77
73 71 69 69 70 69 68 67 66 67 66 66 68 69 70 70 72 76 73 74 74 76 76 79 80 80 81 82 81 81 80 79 79 79 78 79 78 77 77 77 78 77 77
72 70 69 69 69 70 69 68 68 68 67 67 71 71 70 71 71 70 72 73 72 74 74 72 73 76 80 81 81 80 80 80 79 79 78 78 78 78 77 77 77 77 77
71 69 68 69 69 69 70 70 69 68 68 68 68 67 68 70 69 69 70 70 72 72 72 72 71 72 72 80 79 79 80 80 79 78 77 78 77 77 77 77 76 76 76
70 70 69 69 70 69 70 70 70 68 68 68 66 64 62 65 66 68 68 69 69 70 71 71 71 70 70 71 73 77 78 77 78 77 77 76 75 75 75 75 76 76 74
71 70 71 70 70 69 69 70 70 69 67 67 68 65 61 60 62 67 68 68 69 69 70 69 69 69 69 70 72 74 75 75 77 77 76 76 74 74 74 74 73 73 73
71 72 71 71 70 71 70 70 70 69 67 66 66 68 66 65 61 59 67 67 68 68 66 69 68 68 68 67 73 74 73 74 76 76 76 75 74 75 75 75 75 74 74
72 73 71 70 69 69 69 69 69 68 68 67 66 66 65 65 64 63 62 64 66 67 68 69 69 69 69 68 69 72 73 73 74 74 75 75 75 75 75 75 75 75 75
68 70 71 69 70 68 69 68 68 69 68 68 67 66 65 64 62 62 63 63 63 65 65 67 67 67 68 69 72 73 72 71 70 71 72 73 73 73 74 74 74 74 74
66 67 69 69 69 69 69 68 68 68 67 66 66 66 67 66 65 64 63 64 63 64 64 65 66 66 67 68 70 71 71 69 68 68 68 69 70 70 70 71 71 72 72
66 67 68 68 69 69 68 68 67 67 66 66 66 66 66 66 66 65 64 64 62 63 62 62 64 65 66 66 69 70 67 68 67 66 66 66 67 67 67 67 68 69 70
68 67 68 68 68 68 68 67 65 65 65 65 65 66 66 66 67 66 65 69 64 60 60 62 62 63 63 64 66 64 64 67 66 65 65 65 65 65 65 66 66 67 67
67 67 67 67 67 66 66 65 64 65 64 64 64 65 65 65 66 66 66 65 66 64 60 62 61 62 62 62 65 62 64 65 65 64 64 63 64 64 64 64 66 65 66
66 66 66 66 66 65 64 63 63 63 63 63 63 64 64 64 64 65 65 66 64 63 59 59 60 61 60 60 59 60 58 57 59 64 63 62 62 62 62 63 64 64 64
66 66 66 65 65 64 63 63 63 62 62 61 61 62 63 65 62 62 62 63 62 62 62 58 58 58 58 59 59 58 59 58 57 63 62 62 61 60 60 61 60 59 60
66 65 65 65 64 64 63 62 61 60 60 60 60 61 62 62 60 59 59 60 61 63 63 59 56 57 57 58 57 58 57 57 58 63 62 61 61 60 59 59 58 56 55
65 64 64 64 64 64 63 61 60 59 59 59 59 60 61 61 59 58 58 61 62 61 61 59 57 57 57 57 57 56 55 56 54 60 59 59 60 61 60 59 59 57 55
66 64 63 62 62 64 64 60 59 58 58 58 58 60 61 64 63 61 58 57 61 60 60 58 57 56 56 56 56 57 55 54 52 52 51 51 51 51 52 58 60 59 56
64 64 62 62 61 65 61 62 61 58 58 57 57 57 58 62 62 62 62 61 59 57 58 58 56 56 56 57 56 52 51 50 50 52 50 50 51 50 51 50 59 58 56
64 63 62 61 60 60 59 60 62 59 58 57 57 56 59 60 59 59 61 62 61 62 60 56 54 53 53 54 54 52 52 52 53 52 53 51 51 51 52 52 59 57 56
65 63 61 60 59 59 58 58 61 59 58 58 57 56 55 55 55 56 55 54 54 55 57 58 57 56 56 56 56 56 55 54 53 52 53 51 52 52 50 50 59 57 56
65 63 62 61 61 58 56 56 59 57 56 56 56 55 55 55 57 57 55 53 52 52 56 57 57 57 57 57 56 54 52 53 50 52 53 53 52 54 50 49 50 58 56
64 65 63 62 60 62 54 54 58 57 55 54 54 54 58 56 55 55 54 53 52 50 52 53 53 54 53 54 58 51 51 49 48 48 51 53 54 52 49 49 48 49 50

GFSMA_sfc_temp_060.txt.gz
Temp
70 69 69 72 74 74 74 73 72 72 72 73 74 75 76 76 77 76 76 80 80 80 81 82 81 81 81 80 80 80 80 80 79 79 79 79 79 79 79 79 79 79 79
69 68 69 70 73 73 73 72 72 71 71 73 73 75 76 77 77 76 78 76 80 80 81 81 81 81 81 81 80 80 80 81 80 79 79 79 78 78 79 78 78 78 78
69 70 70 71 72 72 72 72 72 71 71 72 72 73 74 76 77 76 78 76 79 79 80 81 81 81 81 81 81 80 80 79 79 79 78 78 78 77 78 78 78 78 77
71 70 71 71 71 71 71 70 70 69 69 69 71 72 73 74 76 75 76 76 78 79 80 80 80 81 81 81 81 80 79 79 78 78 78 78 78 77 77 77 78 78 77
72 70 71 70 70 70 70 70 69 69 69 69 70 72 73 73 74 78 76 76 77 79 79 80 80 81 82 83 82 81 80 79 78 78 78 79 78 78 77 77 78 78 77
72 71 70 70 70 70 70 70 69 70 70 70 71 73 73 75 75 75 75 76 76 78 78 78 76 79 81 82 81 81 81 80 79 79 78 78 78 78 77 77 77 77 77
72 70 70 70 70 70 71 71 71 69 69 69 70 70 70 71 71 72 73 74 75 76 77 76 76 76 77 78 79 79 80 80 80 79 78 78 77 76 76 77 76 76 76
72 71 70 70 70 70 70 71 71 68 68 70 69 68 66 68 70 70 71 72 72 74 75 75 75 75 75 74 75 78 79 79 80 79 78 76 75 75 76 75 75 76 75
72 72 72 71 71 70 70 71 71 70 69 70 70 69 63 62 65 69 69 69 70 70 71 72 72 72 72 73 74 77 76 75 77 78 77 76 75 74 74 74 74 74 73
73 72 71 71 71 70 70 70 70 70 69 68 68 69 69 68 64 63 67 68 69 70 70 70 71 71 71 70 75 75 74 75 76 77 76 75 73 74 74 75 74 74 74
72 73 72 72 71 70 71 70 72 70 70 69 69 68 68 68 68 66 63 65 67 66 69 70 70 70 72 71 72 74 74 73 74 75 75 75 75 75 75 75 75 75 75
70 72 71 71 70 70 70 71 71 71 70 70 69 69 68 67 66 66 65 65 64 64 65 67 67 68 69 71 73 74 73 72 71 71 72 73 74 74 74 74 74 75 75
69 70 71 70 70 71 71 71 71 70 70 69 69 68 69 69 68 67 66 65 64 65 64 65 66 66 67 69 71 72 71 69 69 68 69 70 70 71 71 71 72 73 75
69 70 70 71 71 71 70 70 69 69 69 69 69 68 69 69 69 68 67 66 63 63 63 63 64 64 65 68 70 70 68 68 67 66 66 67 67 67 68 68 70 70 71
70 70 70 70 70 70 69 69 69 69 68 68 68 69 69 69 69 69 69 72 67 61 61 62 61 63 64 66 67 66 67 67 67 65 65 65 65 66 66 67 67 67 67
69 70 70 70 69 69 69 68 67 67 67 67 67 68 68 68 69 69 69 68 68 66 61 62 62 62 63 63 66 64 66 66 65 65 64 64 64 64 65 67 66 66 66
69 69 69 69 68 68 67 67 66 67 66 66 67 67 67 68 68 68 68 68 67 64 60 60 60 61 61 59 60 61 63 65 66 64 63 63 62 63 63 64 64 64 64
69 69 69 68 68 67 66 67 66 66 65 65 65 67 67 68 66 68 69 66 64 64 62 58 59 59 59 59 60 59 62 64 65 64 63 62 61 61 60 60 60 60 60
69 68 68 68 67 67 66 65 65 65 64 64 64 66 65 66 64 64 65 64 63 64 63 60 57 58 58 59 58 60 58 60 65 64 62 62 61 61 60 59 58 57 55
68 67 67 68 67 67 66 65 64 63 63 63 63 65 65 65 64 62 64 64 64 63 63 61 58 57 58 58 59 58 56 59 58 62 62 62 62 61 60 59 59 58 55
68 67 67 66 67 67 67 64 63 63 63 62 63 65 65 65 63 63 64 63 63 62 61 59 57 57 56 56 56 57 56 58 56 60 61 61 61 61 62 60 61 59 57
66 66 65 65 65 68 61 61 63 63 63 62 62 62 63 64 63 62 62 62 63 61 60 60 58 58 57 58 58 57 56 57 56 60 60 60 61 61 62 62 60 58 56
65 64 63 65 64 65 59 60 62 63 63 62 61 62 64 64 63 63 61 62 62 62 63 63 60 59 58 60 58 56 58 59 59 59 61 58 59 60 62 62 59 57 56
65 64 62 62 63 64 58 57 61 63 63 63 62 62 62 61 62 62 62 61 61 62 63 65 64 63 64 63 63 63 61 60 60 59 61 59 59 60 62 62 59 58 56
66 63 63 61 60 62 56 55 60 62 62 62 62 61 62 61 57 56 61 59 58 59 58 56 57 57 57 57 61 63 61 60 58 59 60 61 60 61 60 61 61 58 56
65 65 62 61 59 61 55 52 59 63 61 60 59 60 58 60 55 54 59 58 57 58 60 59 60 58 58 59 58 62 63 62 59 59 62 62 61 59 59 60 60 61 62

GFSMA_sfc_temp_063.txt.gz
Temp
81 82 82 84 85 85 85 83 83 83 83 84 84 84 85 86 87 89 89 82 80 80 81 82 81 81 81 81 80 81 80 80 80 79 80 80 80 79 79 79 79 79 79
79 81 79 79 84 85 85 84 82 82 82 84 83 84 84 86 86 86 90 89 80 81 81 82 82 82 81 81 80 80 81 81 80 79 79 79 78 78 79 79 79 78 78
71 72 77 77 82 83 82 81 81 81 82 82 81 84 85 84 86 85 87 89 90 80 81 81 81 81 81 81 81 80 80 80 80 79 79 78 78 78 78 78 79 78 78
72 71 73 82 83 82 82 82 82 81 82 82 81 83 84 84 84 84 86 87 89 90 85 80 80 81 81 82 82 81 79 78 79 79 78 78 78 77 77 77 78 78 78
77 76 71 73 79 81 81 82 81 80 81 81 82 82 83 84 83 87 84 85 86 88 90 85 80 80 82 82 82 82 81 79 79 78 79 78 78 78 77 77 77 77 77
72 77 73 73 73 73 75 81 79 81 80 81 81 82 83 85 85 85 85 87 86 86 88 87 83 89 81 82 82 81 81 80 80 79 79 79 78 77 77 77 77 77 77
74 72 71 75 78 77 80 79 79 77 79 75 70 77 80 79 81 82 75 77 85 85 86 86 86 88 89 79 78 80 81 81 80 79 79 77 77 77 76 75 75 76 76
75 72 71 72 77 79 78 79 77 77 75 69 68 69 69 73 80 78 78 78 81 84 85 84 84 83 84 85 83 78 80 80 80 79 79 78 77 75 74 75 75 75 76
71 74 79 79 79 79 80 79 79 77 71 70 71 72 70 74 74 76 73 73 74 74 75 77 79 79 79 82 82 80 77 77 79 79 78 77 75 75 74 74 74 74 74
73 75 77 76 77 76 77 77 78 77 75 69 74 77 77 78 75 68 73 70 71 72 75 74 75 78 79 81 78 76 75 75 77 78 77 76 75 73 73 74 74 74 74
75 74 72 72 73 73 71 70 72 70 72 75 74 73 72 72 74 75 68 67 69 68 70 75 75 79 79 81 77 74 74 74 75 75 76 75 75 74 74 74 75 75 75
80 77 73 72 73 72 73 73 74 78 78 77 78 77 75 72 72 72 71 68 66 65 66 67 69 72 72 73 75 74 73 72 72 72 73 74 74 75 75 75 75 76 76
80 78 79 72 72 73 73 73 76 77 77 75 75 76 75 75 76 75 72 68 67 65 64 65 65 67 69 71 71 73 72 70 69 69 70 70 71 72 72 73 74 75 76
81 79 79 80 77 75 78 77 79 77 79 78 75 75 75 74 76 77 75 74 64 63 63 63 64 65 68 69 70 71 69 68 68 67 66 67 68 68 69 71 71 71 72
79 79 79 79 79 79 75 76 78 73 74 76 76 75 75 76 74 77 77 79 74 63 61 63 62 64 67 71 70 70 70 68 67 66 65 65 66 66 68 68 67 67 67
77 77 78 78 77 77 77 76 76 75 73 78 77 75 74 74 74 74 77 79 73 69 63 64 63 63 65 66 68 67 67 67 66 65 64 64 65 66 66 66 66 66 66
76 76 77 77 77 77 76 76 75 75 75 74 74 73 73 73 73 72 75 75 71 66 61 61 62 62 61 63 64 66 71 73 71 64 64 63 64 64 63 64 64 64 65
76 77 77 76 76 76 75 75 74 75 75 74 74 74 74 77 71 72 71 71 70 66 63 59 60 59 59 63 64 64 67 73 73 64 63 62 62 61 61 61 61 61 60
77 77 77 76 75 75 75 75 75 74 74 74 74 75 75 75 70 72 73 70 66 65 63 60 58 59 59 60 61 63 64 63 68 65 63 62 61 60 60 59 58 57 56
77 77 77 76 75 75 75 74 73 73 74 74 73 74 75 75 72 69 72 70 69 66 64 61 58 58 59 59 60 61 62 66 63 69 66 66 64 62 60 60 59 58 55
77 76 73 76 76 76 77 74 74 73 73 73 73 74 73 70 65 69 71 70 69 66 64 59 58 57 57 57 58 61 60 59 62 70 70 71 71 71 68 63 62 59 57
73 73 69 72 75 78 60 62 70 74 72 73 72 72 72 68 65 63 64 65 68 66 64 62 61 59 58 60 61 57 58 58 64 71 70 69 73 71 72 73 61 58 57
72 71 70 67 68 74 60 60 64 74 73 73 72 73 74 73 70 71 63 63 63 63 65 69 66 66 63 64 63 58 61 65 70 71 70 69 71 71 72 68 59 58 57
72 72 65 65 64 67 58 57 61 73 72 72 72 72 72 70 70 71 71 71 70 70 68 70 69 68 68 68 66 67 64 66 70 71 72 68 71 71 72 73 59 58 57
70 69 67 63 60 63 57 55 61 72 71 71 72 70 71 70 59 59 71 69 69 70 59 57 58 59 60 62 68 72 68 69 66 68 70 71 70 71 72 72 70 58 56
70 67 66 68 60 61 54 53 59 74 71 72 70 69 59 66 55 55 71 70 69 69 70 68 67 62 64 63 59 71 72 69 69 67 72 69 70 70 66 70 72 69 66

GFSMA_sfc_temp_069.txt.gz
Temp
87 91 84 86 83 86 90 86 85 89 85 87 89 86 93 94 94 92 81 82 81 81 82 82 82 81 81 81 81 81 81 81 80 80 80 80 80 80 80 80 80 80 79
87 91 91 92 90 89 85 87 89 83 88 89 88 86 84 86 93 93 95 88 82 81 81 82 82 82 82 81 81 80 81 81 80 80 79 79 79 79 79 79 80 80 79
86 88 92 92 89 90 88 88 88 89 87 86 86 85 90 91 90 88 93 92 86 82 82 82 82 82 82 82 81 81 80 80 80 79 79 78 78 78 79 79 79 78 77
86 87 90 92 91 89 90 89 87 83 86 82 82 83 82 87 85 91 87 86 86 85 82 82 81 81 81 82 82 81 80 79 79 79 79 79 78 77 77 78 78 76 75
80 83 86 87 84 90 83 86 86 85 83 85 84 82 85 88 91 93 92 92 86 88 81 81 81 81 82 83 82 82 81 80 79 79 79 79 78 78 77 76 77 75 73
81 76 79 81 77 85 89 85 85 88 80 81 84 83 83 82 82 83 89 90 83 89 79 75 78 85 81 82 81 81 81 81 80 79 79 79 78 78 77 75 75 75 74
81 79 75 82 82 81 81 84 82 81 83 82 79 86 88 88 88 90 87 90 86 88 85 87 84 84 90 81 81 81 81 81 81 80 80 78 78 77 77 76 75 75 75
81 80 80 74 79 76 76 77 75 81 84 84 79 77 77 80 81 86 81 85 86 84 83 88 86 87 86 84 81 76 81 80 81 81 80 79 77 77 77 76 76 75 75
81 79 78 76 74 73 72 74 76 79 76 80 80 77 68 68 68 77 81 83 80 82 84 85 84 84 84 85 83 82 79 80 81 81 80 79 77 76 76 75 74 73 74
82 81 80 78 73 72 79 73 78 78 77 75 77 80 76 72 66 65 72 80 83 80 79 78 83 83 83 82 78 76 75 77 79 80 79 78 77 76 75 74 73 73 73
80 78 72 77 73 75 77 78 78 78 77 75 75 72 71 70 70 68 66 73 78 76 75 78 77 78 80 80 79 76 75 75 76 77 77 77 76 75 75 74 74 74 74
82 79 76 75 74 74 76 74 78 78 77 76 73 70 70 72 75 74 72 73 70 66 68 70 74 75 76 76 76 74 74 73 73 73 74 75 75 76 76 76 76 76 75
83 82 82 80 78 75 73 74 75 75 75 77 75 79 80 81 81 79 75 72 68 67 66 65 67 73 73 73 75 74 72 71 70 70 70 71 72 74 75 76 77 76 76
88 83 83 82 81 80 75 74 76 79 78 77 78 78 78 77 77 76 75 72 65 66 65 63 66 67 68 70 72 71 72 69 68 68 68 68 69 70 70 71 72 73 74
89 86 87 86 83 81 80 78 73 72 72 73 73 74 73 75 74 78 78 73 70 66 62 63 63 68 70 72 73 73 71 68 68 67 67 67 67 68 68 68 68 68 68
85 86 85 86 84 82 80 79 78 80 76 81 83 81 80 81 77 78 76 76 72 72 67 67 65 66 67 69 73 72 70 69 67 66 66 66 66 66 66 66 67 67 67
84 84 83 82 82 81 80 83 82 82 81 80 81 81 81 81 79 75 77 72 74 74 71 63 65 65 66 68 70 73 72 73 70 66 66 65 65 65 65 65 65 66 66
84 84 84 84 81 82 84 83 82 84 82 80 80 79 79 80 79 78 76 74 74 75 74 62 62 61 63 68 70 71 72 76 73 66 66 64 63 63 63 63 63 62 62
84 85 84 82 81 82 83 83 82 83 82 82 81 79 79 79 78 79 75 74 73 74 73 64 61 61 61 65 66 71 70 71 74 65 64 63 62 62 61 60 59 59 58
85 85 84 83 84 84 83 83 82 81 81 82 80 80 81 79 77 77 75 75 74 74 72 63 60 59 60 62 65 66 66 71 67 73 70 68 64 62 62 61 60 59 57
85 85 82 82 81 84 83 82 82 81 81 81 82 81 79 72 67 69 74 75 72 72 68 65 60 59 59 59 61 69 70 72 70 75 73 69 69 69 66 61 63 61 58
82 80 82 81 80 80 64 69 71 82 81 81 80 81 79 71 68 66 67 65 71 71 67 66 63 60 61 62 67 65 67 66 63 73 72 69 74 72 72 72 66 60 58
79 79 79 80 79 77 62 63 66 71 80 81 80 80 81 81 74 77 66 65 66 65 69 71 66 65 62 65 67 62 64 68 69 64 63 67 76 74 76 71 61 59 58
79 78 78 78 77 76 60 59 62 68 74 79 80 81 80 79 76 76 78 77 75 74 71 73 70 69 71 70 68 69 65 66 68 71 71 68 74 72 74 72 60 59 57
78 78 78 77 76 73 57 56 59 67 71 75 78 79 79 79 63 64 77 77 74 73 62 60 61 62 65 65 68 66 62 63 61 64 73 71 67 67 72 68 66 59 57
78 82 80 78 70 74 55 54 57 67 66 74 74 75 64 64 60 59 73 75 73 74 76 73 72 66 67 67 63 71 71 66 68 64 70 71 66 68 65 73 68 60 62

GFSMA_sfc_temp_072.txt.gz
Temp
78 78 80 82 80 80 78 78 80 78 79 84 83 83 85 85 87 84 82 82 81 81 82 82 82 82 81 81 80 80 80 81 80 80 80 80 80 80 80 79 79 79 79
80 80 81 80 81 81 79 79 78 78 78 81 82 83 83 83 84 86 82 80 81 80 81 82 82 82 82 81 80 80 80 81 80 80 79 79 79 79 79 79 80 79 79
81 81 83 83 82 80 83 81 79 80 78 82 80 82 83 82 84 84 85 82 82 81 80 81 81 81 81 82 81 80 80 80 80 79 79 78 78 78 78 78 79 78 77
82 80 80 80 82 81 82 81 77 78 79 78 77 81 81 82 83 83 84 84 82 83 82 82 81 80 80 81 82 81 80 79 79 79 78 78 78 78 77 78 78 78 76
83 81 80 82 80 80 79 81 80 79 76 76 79 79 79 81 81 86 83 83 83 82 81 81 80 78 77 81 81 81 80 80 79 78 79 79 78 78 77 77 77 77 76
82 78 80 80 79 77 79 76 77 78 79 78 82 82 80 79 81 80 81 84 80 84 79 79 73 74 77 77 78 81 81 81 80 79 79 78 78 77 77 77 76 76 76
79 78 78 77 78 76 75 77 77 75 77 78 71 74 75 79 82 81 83 80 75 75 74 78 75 75 74 75 73 80 81 82 81 80 79 78 78 78 77 76 76 75 75
75 76 77 76 77 77 76 76 76 74 76 76 73 72 69 74 78 79 78 78 79 76 78 80 78 77 77 77 78 78 79 79 80 80 80 78 78 77 77 76 75 75 75
77 74 74 78 75 75 74 74 74 74 71 72 76 71 67 66 70 74 73 74 76 77 78 77 79 79 78 77 80 78 79 78 79 80 80 79 77 77 77 76 75 74 73
80 76 75 76 75 74 73 72 72 71 71 69 73 73 74 73 67 64 68 68 73 75 74 75 75 75 76 75 76 75 75 76 79 80 80 79 77 76 76 75 74 73 73
80 80 76 76 74 73 73 73 73 73 72 72 71 72 72 71 70 66 64 66 69 70 71 72 73 73 75 74 74 75 75 76 76 77 77 77 77 76 75 74 74 74 74
78 77 77 75 73 72 71 72 73 73 72 73 73 69 68 68 67 66 66 68 68 66 67 68 70 72 72 73 75 74 74 74 73 74 74 75 75 76 76 76 75 75 75
76 76 75 75 75 74 74 72 73 72 72 73 72 70 71 71 70 70 69 69 67 66 66 66 66 70 71 72 73 73 72 71 70 70 71 72 73 74 75 76 77 76 76
75 77 77 77 77 76 75 75 73 72 73 72 73 73 72 74 73 72 70 68 65 65 64 64 66 67 68 70 71 72 69 69 69 68 69 69 70 70 71 72 73 73 74
77 79 79 77 77 78 75 74 72 72 71 71 71 72 72 73 73 72 71 70 67 62 61 63 63 68 69 70 72 70 68 69 68 68 67 67 68 68 68 69 69 69 69
81 82 84 82 79 78 77 75 74 74 72 71 71 71 71 72 73 74 73 72 70 68 63 65 64 66 68 69 71 68 67 68 67 67 66 66 66 66 67 67 67 67 67
82 83 82 82 81 79 77 75 75 75 73 74 75 74 75 75 72 74 73 72 70 69 64 63 65 66 66 66 68 68 69 66 65 66 66 66 65 65 65 66 66 66 66
82 82 82 80 81 80 79 78 77 78 77 76 75 76 75 75 75 73 71 71 70 69 64 61 62 61 63 67 68 67 69 71 66 67 64 64 64 64 63 63 63 63 63
81 82 82 81 78 80 78 79 79 78 78 78 76 75 75 75 73 73 72 71 70 67 65 62 60 61 61 65 65 66 67 67 68 66 65 63 63 62 62 61 60 59 59
81 79 79 79 78 79 81 80 79 78 77 78 77 76 76 74 72 73 73 71 69 68 65 62 60 59 60 62 65 63 63 66 62 67 67 64 63 63 62 61 60 59 57
80 79 78 78 79 78 76 74 79 78 77 76 76 77 73 70 67 67 70 71 70 68 65 62 60 59 59 60 61 64 64 65 63 65 64 62 60 60 59 61 62 61 58
81 81 79 77 78 77 66 69 71 72 72 75 73 75 71 68 66 67 67 65 70 69 66 63 62 59 60 61 63 64 65 64 61 68 66 62 64 62 62 61 63 60 58
79 78 78 77 75 77 64 64 66 69 69 71 73 74 77 77 72 71 66 66 66 66 69 68 64 63 61 63 64 64 62 62 62 66 65 62 68 64 65 65 62 59 57
78 77 77 77 76 69 61 61 62 69 67 69 72 75 74 73 70 73 71 71 69 69 67 71 69 67 66 66 66 64 62 62 63 65 63 60 67 65 67 62 61 59 57
76 76 77 76 76 69 59 58 62 68 66 67 68 70 71 70 64 65 70 69 69 66 61 62 62 63 64 63 66 64 61 59 58 61 64 62 65 63 62 60 60 59 57
75 78 77 77 71 72 56 55 60 67 65 64 66 69 66 67 60 61 67 67 66 68 66 65 64 64 64 64 63 66 65 62 63 60 66 64 63 63 60 61 60 58 56

GFSMA_sfc_temp_075.txt.gz
Temp
73 73 74 75 75 74 74 73 74 73 75 77 79 79 79 81 82 80 77 82 81 81 82 81 82 81 81 80 80 80 80 80 80 80 80 80 80 79 79 79 79 79 79
74 74 73 75 77 78 75 74 73 73 74 75 75 76 76 79 81 81 79 80 82 81 82 82 82 82 82 80 80 80 80 81 80 80 79 79 79 79 79 79 79 79 79
74 75 73 75 80 75 76 75 75 74 73 76 75 77 78 81 82 82 80 77 79 81 82 82 81 81 81 81 81 80 79 79 80 79 78 78 78 78 78 78 79 79 77
75 74 73 71 73 75 74 72 73 72 72 72 73 75 79 80 81 80 82 80 80 81 81 82 81 81 81 82 82 82 80 79 78 78 78 78 78 77 78 78 78 78 76
77 75 72 73 74 72 73 72 72 72 71 71 74 74 77 78 78 84 81 82 78 79 78 80 80 80 80 80 80 79 80 80 79 78 78 78 78 78 77 77 77 77 77
76 74 72 72 71 70 70 72 72 72 72 71 75 73 75 75 75 78 77 79 75 75 75 74 73 74 79 80 78 78 79 79 80 79 79 78 78 78 77 77 77 77 76
75 73 71 71 71 70 70 72 72 71 70 70 68 68 70 74 71 76 75 74 73 75 75 72 71 71 74 76 75 76 78 78 80 80 79 78 78 78 77 77 76 76 76
73 73 72 71 73 71 71 71 71 69 70 70 67 66 65 67 70 71 71 71 71 74 73 73 74 74 72 73 72 75 77 78 79 81 79 78 77 77 77 77 76 75 75
73 73 73 72 72 72 70 71 70 69 67 69 70 66 62 61 64 68 68 67 69 71 72 72 73 73 74 72 75 75 76 75 79 80 80 78 77 77 77 76 75 75 75
74 73 73 73 71 71 70 70 71 69 68 66 68 70 69 68 62 61 66 66 69 70 69 69 71 72 72 72 74 74 74 74 77 78 79 79 77 76 76 75 75 74 73
73 73 71 71 71 71 71 71 70 69 68 67 67 68 69 68 67 63 61 63 68 67 67 68 68 70 71 71 70 73 75 76 76 77 77 77 76 76 75 75 75 74 74
71 72 71 70 71 71 70 70 71 70 70 69 69 68 67 65 65 65 64 64 65 65 66 67 66 69 70 71 74 75 75 74 73 73 74 75 75 76 76 76 75 75 75
70 70 71 69 68 69 69 70 70 71 70 69 69 68 69 69 68 67 66 65 64 65 64 65 66 69 70 69 70 73 73 71 71 70 71 72 73 74 75 76 76 76 76
70 72 71 71 71 71 71 70 69 70 71 70 70 68 69 69 69 67 66 65 63 63 64 63 66 67 68 68 71 71 69 70 69 69 68 69 69 71 72 73 74 73 74
73 73 73 72 72 72 72 71 69 69 69 69 70 69 69 70 70 69 69 68 65 61 61 62 63 67 68 68 69 67 67 69 69 68 67 67 67 68 68 69 69 69 70
74 73 74 73 72 72 72 70 69 70 68 68 69 69 70 70 70 69 69 68 68 64 61 63 63 65 67 68 69 65 66 67 68 67 66 66 66 66 67 67 67 68 68
73 74 74 72 72 71 71 70 69 69 69 69 70 70 70 70 69 68 68 68 68 67 62 63 63 65 65 66 66 65 64 61 63 66 66 65 65 65 65 66 66 66 66
73 73 74 72 72 73 72 73 73 72 70 69 70 70 70 72 69 68 68 68 67 67 63 61 62 62 63 65 65 64 66 65 61 65 65 64 64 64 63 63 63 63 63
73 73 73 72 72 72 73 74 73 72 73 71 73 73 71 69 68 68 68 67 66 66 64 62 61 61 62 64 64 65 65 61 63 66 65 64 63 63 62 61 60 59 59
72 72 73 75 75 74 74 74 73 71 71 71 73 73 70 68 66 67 67 66 65 64 63 62 61 60 60 62 63 61 60 59 57 64 64 62 62 63 62 61 61 60 57
73 75 75 74 74 71 72 71 73 70 69 70 71 69 68 67 67 66 66 67 67 63 62 60 59 59 59 60 61 62 61 58 57 57 56 57 56 56 57 61 62 62 58
72 71 70 71 69 70 66 68 68 67 67 68 67 67 66 66 66 66 66 66 66 65 62 60 59 59 60 61 62 63 61 58 55 59 58 55 56 55 56 54 61 60 58
71 70 70 70 69 66 63 64 66 64 65 66 68 67 68 70 66 64 65 65 65 66 66 64 61 60 60 62 63 62 61 63 58 61 61 54 58 55 60 60 60 59 58
70 70 69 69 68 65 61 61 63 63 63 67 69 69 66 66 65 64 62 63 64 66 66 68 65 63 64 64 65 65 62 61 62 63 62 58 60 60 63 60 61 59 57
70 69 69 69 67 62 58 58 61 61 62 64 67 68 68 65 63 63 66 64 62 61 60 62 63 62 62 62 65 64 60 59 58 59 60 61 60 58 57 54 58 59 57
70 69 69 69 66 64 55 55 59 60 60 61 63 66 65 65 60 60 63 62 62 62 62 61 61 61 61 61 62 65 64 60 60 58 61 60 58 61 58 58 56 57 55

GFSMA_sfc_temp_078.txt.gz
Temp
72 72 72 72 73 73 72 72 72 73 73 74 75 75 75 77 80 74 75 82 81 81 81 82 81 81 81 80 80 80 80 80 79 79 79 80 79 79 79 79 79 79 79
72 72 72 71 72 73 72 71 71 72 73 73 74 75 76 77 79 80 76 80 81 81 81 82 82 81 81 81 80 80 80 81 80 79 79 79 79 78 79 79 79 79 78
72 73 71 72 72 73 73 72 72 72 72 72 73 76 76 77 78 79 78 78 79 81 81 82 82 81 81 81 81 80 80 80 80 79 79 78 78 78 78 78 79 78 78
73 72 72 71 72 72 72 70 71 72 71 71 71 72 74 76 77 79 77 77 77 80 81 81 81 81 82 81 82 81 80 79 79 79 78 78 78 77 77 77 78 78 78
75 73 70 71 72 70 71 71 70 69 69 69 71 71 71 74 78 80 80 77 78 76 75 79 81 80 82 83 81 81 81 79 79 79 79 78 78 77 77 77 77 77 77
74 72 71 71 70 70 70 70 70 70 69 69 73 72 69 71 74 74 77 77 75 76 74 73 74 75 80 81 80 80 80 79 78 79 79 79 78 78 77 77 77 77 77
73 73 70 70 70 68 69 69 69 70 69 69 67 67 67 69 70 70 71 72 72 74 72 73 72 72 73 78 79 78 79 80 79 78 79 79 78 78 77 77 76 76 76
73 71 72 71 70 69 68 68 70 68 67 68 65 65 63 66 67 69 68 70 70 71 72 73 72 73 72 73 73 76 77 78 79 79 78 77 78 77 77 77 76 76 76
73 72 72 71 71 70 69 69 69 68 67 67 69 66 62 60 62 66 65 67 69 69 70 71 72 72 72 72 74 75 77 76 77 78 78 78 77 77 76 76 76 75 75
72 72 72 72 71 71 69 69 70 69 67 65 67 68 67 65 62 61 65 64 68 68 68 69 70 71 72 72 74 75 74 74 75 77 78 79 78 77 76 76 76 75 74
71 72 71 71 71 70 70 70 69 68 67 67 66 66 66 66 66 64 62 62 65 65 66 67 67 69 71 71 69 72 75 74 75 76 78 78 77 77 76 76 75 75 74
69 71 70 70 71 71 70 70 69 69 68 68 68 67 67 65 65 64 63 64 64 65 65 66 66 69 70 70 73 75 74 74 73 74 74 76 76 76 76 76 75 75 75
68 69 69 68 68 69 69 69 69 69 69 68 68 68 68 67 68 66 65 64 64 65 64 65 66 68 69 68 69 73 73 72 71 70 71 72 73 74 75 75 76 76 76
68 70 70 68 68 68 68 68 67 68 69 69 69 68 68 68 68 67 66 64 63 63 64 64 65 67 68 68 71 71 70 70 69 68 68 69 70 72 73 73 74 74 74
70 70 70 69 69 69 69 69 68 68 68 68 69 69 68 69 69 68 67 66 64 61 61 63 63 67 67 68 68 67 67 70 70 68 67 67 67 68 69 70 70 70 70
70 70 70 70 70 70 70 69 68 68 67 66 67 67 67 69 69 69 68 68 67 64 61 63 63 65 67 67 69 65 67 68 68 68 67 66 66 67 67 67 68 68 68
70 70 70 70 70 69 69 68 68 68 67 67 68 68 67 68 68 68 69 68 67 65 62 62 63 65 65 65 65 64 65 63 65 67 66 66 65 65 66 66 66 67 67
70 71 70 70 70 70 69 68 68 70 67 67 67 68 67 69 68 67 67 67 67 66 63 61 63 62 63 65 63 61 64 63 63 66 65 65 64 63 63 63 63 63 63
70 70 70 69 69 69 69 69 70 68 69 68 67 67 68 68 66 66 66 66 65 66 63 62 60 61 62 64 62 62 59 58 62 66 65 64 64 63 62 61 61 59 59
70 70 69 71 70 70 70 71 70 68 68 69 69 68 67 67 66 66 66 65 65 64 63 62 61 61 61 62 64 61 59 59 58 63 65 62 63 63 62 62 61 60 58
71 70 70 73 74 73 71 71 71 68 67 67 68 68 67 67 68 66 65 65 64 63 62 61 60 60 60 61 61 61 59 57 56 57 56 59 58 59 58 62 62 63 59
70 69 71 72 67 69 64 65 67 67 66 66 65 65 65 67 65 65 65 66 65 63 61 60 59 60 61 62 61 62 59 57 55 57 55 55 56 56 55 55 61 61 58
68 68 67 67 67 66 62 63 65 64 65 64 65 64 65 68 64 63 63 64 65 65 65 64 61 61 60 62 63 62 61 59 57 59 58 56 56 54 57 57 59 59 58
68 67 67 67 66 65 60 60 63 62 63 67 67 67 65 64 63 63 62 62 63 65 65 66 63 60 60 65 65 65 62 61 61 61 63 56 58 56 56 58 60 59 58
67 68 68 67 66 64 58 58 60 60 61 65 66 67 67 64 61 60 64 61 61 60 59 61 62 60 60 60 63 62 60 59 58 59 61 58 55 56 55 55 57 59 57
61 68 68 68 65 63 54 55 59 59 59 59 61 63 62 63 58 59 63 61 59 60 61 60 61 60 59 59 61 63 61 61 60 58 60 60 57 58 56 55 54 56 56

GFSMA_sfc_temp_081.txt.gz
Temp
71 71 71 72 72 72 72 72 72 72 72 73 73 73 74 74 76 73 73 81 81 81 81 82 81 81 81 80 80 80 80 80 79 79 79 80 79 79 79 79 79 79 79
71 71 71 71 71 72 72 71 71 71 72 72 72 73 74 74 75 76 74 77 81 81 81 82 81 81 81 81 80 80 80 80 80 79 79 79 79 78 79 79 79 79 78
71 71 71 70 71 71 72 71 71 71 71 71 71 73 72 75 77 77 76 77 77 81 81 81 81 80 81 81 81 80 80 79 79 79 78 78 78 78 78 78 79 78 78
73 71 71 70 71 71 71 71 70 69 69 70 70 71 72 74 75 76 75 75 74 77 80 81 80 81 81 81 81 80 79 79 79 78 78 78 78 77 77 78 78 78 77
74 72 71 71 71 71 71 71 69 70 68 69 70 70 70 71 72 75 76 75 74 75 75 78 80 80 81 83 82 81 80 79 78 78 78 78 78 77 77 77 77 77 77
73 72 70 70 70 69 69 69 69 69 69 69 71 71 69 69 69 70 72 76 74 73 73 73 73 76 80 81 80 80 81 80 79 79 79 78 78 78 77 77 77 77 77
72 72 70 71 70 68 69 69 68 69 68 68 66 66 67 68 69 69 69 70 71 73 72 72 71 71 72 77 77 79 80 80 80 79 78 78 78 78 77 76 76 76 76
72 71 71 70 70 68 68 68 68 67 66 67 65 63 62 65 66 68 68 69 69 70 72 72 71 72 71 72 73 77 78 78 79 79 78 78 78 77 76 76 76 76 76
72 71 71 70 70 69 68 67 68 68 65 66 67 65 60 60 62 65 65 67 68 68 69 70 71 72 72 72 74 74 76 76 77 78 78 77 77 76 76 76 76 76 76
72 71 71 71 70 70 69 68 69 67 66 65 66 67 66 65 61 61 64 64 67 67 67 67 68 70 71 71 73 75 74 74 74 76 78 78 78 76 77 77 77 76 75
71 71 70 70 70 69 70 69 69 68 67 66 65 65 65 65 64 61 60 62 66 66 65 65 66 69 71 71 69 71 74 74 74 75 76 78 78 77 77 77 76 75 75
68 70 70 69 69 69 70 70 69 68 67 67 66 66 65 65 64 63 61 62 63 65 63 64 65 69 69 69 72 74 74 74 73 73 74 76 77 77 77 76 76 75 75
68 68 68 67 68 69 69 69 68 68 68 67 68 68 68 67 66 66 64 64 63 64 63 64 65 68 69 67 69 73 73 72 71 70 71 72 74 74 75 75 76 76 76
68 69 68 68 68 68 68 68 67 67 67 67 67 68 68 68 68 67 66 64 63 63 64 63 63 67 68 68 70 72 69 71 70 68 68 69 71 72 73 73 74 74 75
69 69 69 68 68 67 66 66 66 66 67 67 67 68 67 68 68 67 67 66 64 61 62 63 63 66 67 68 68 66 68 70 70 68 67 67 68 69 70 70 70 70 70
69 69 69 69 68 68 68 67 67 67 66 66 66 66 67 68 68 68 68 67 67 64 62 63 64 65 67 67 69 66 67 69 69 68 67 66 66 67 67 67 68 68 69
69 69 69 69 69 69 68 67 66 67 66 65 65 65 66 67 67 67 67 67 67 65 62 62 63 65 65 65 65 64 65 64 65 67 67 66 65 65 66 66 67 67 67
68 69 69 68 68 68 68 67 67 68 66 65 65 66 66 67 66 65 66 66 66 65 63 61 62 63 63 64 63 62 64 64 64 66 65 65 64 63 63 63 64 64 63
68 68 68 68 68 68 67 67 67 68 67 66 65 65 66 67 65 65 65 65 63 65 63 62 61 62 63 63 61 61 61 60 64 67 65 64 64 63 62 62 61 60 59
68 68 68 68 68 68 68 68 67 66 66 67 67 66 67 67 66 65 65 65 65 64 63 63 61 62 62 62 62 60 58 57 59 64 64 62 63 64 63 62 62 60 58
69 68 67 67 68 68 70 67 69 65 65 65 66 67 68 67 68 66 64 65 64 63 62 62 60 60 60 61 60 61 59 58 57 57 58 59 60 60 59 62 63 63 59
67 68 67 67 68 68 65 65 67 65 65 65 64 65 65 67 65 65 65 66 65 63 61 61 60 60 61 62 61 61 58 57 56 57 56 58 59 58 57 56 61 61 59
65 65 66 67 66 65 62 62 65 64 63 63 63 64 65 67 65 64 63 64 64 64 65 64 61 61 61 62 63 61 60 58 58 58 56 55 57 56 57 57 59 60 58
63 63 63 65 66 66 60 59 62 62 62 63 64 63 63 64 64 64 64 64 62 64 65 65 64 63 62 64 65 64 61 60 60 59 62 56 54 54 55 59 59 59 58
62 63 63 63 66 67 58 57 60 60 60 62 63 64 64 64 61 60 63 62 61 61 59 60 61 60 60 60 62 63 60 59 58 58 61 58 55 55 55 56 56 59 57
61 62 62 62 64 67 56 55 59 59 58 59 61 62 62 63 57 56 63 62 60 60 60 60 60 59 58 58 60 65 63 60 59 58 60 60 55 57 56 55 57 55 57

GFSMA_sfc_temp_084.txt.gz
Temp
72 73 73 74 74 74 74 74 74 74 75 75 76 75 76 77 78 76 78 80 80 80 81 82 81 81 81 80 80 80 80 80 80 80 80 80 80 79 79 79 79 79 79
72 72 72 72 73 74 74 74 74 74 74 74 74 75 76 77 78 78 78 79 81 80 81 82 81 81 81 81 80 80 80 80 80 79 79 79 79 79 79 79 79 79 79
72 73 72 72 73 74 74 74 74 74 73 73 73 75 76 77 78 78 77 78 80 81 81 81 81 81 80 81 81 80 80 80 80 79 79 78 78 78 78 78 79 79 78
73 72 73 72 73 73 73 73 72 71 72 72 72 74 74 75 76 78 76 77 77 81 81 81 80 81 81 81 81 80 80 79 79 79 79 78 78 77 77 78 78 78 78
74 73 72 72 73 72 72 72 72 72 71 72 72 73 72 75 75 77 77 77 78 79 80 79 80 80 81 83 82 81 80 79 79 79 78 78 78 78 77 77 77 77 77
73 73 72 72 71 71 71 72 71 71 71 71 73 74 73 73 73 73 76 78 78 78 78 77 77 79 80 81 81 81 81 80 79 79 79 79 78 78 77 77 77 77 77
72 72 71 71 71 70 71 71 70 69 70 71 69 70 71 72 72 73 74 75 75 77 77 76 75 75 76 77 78 80 81 80 80 80 79 78 78 78 77 77 76 76 76
72 72 72 71 71 69 69 69 69 69 70 69 68 67 67 70 70 71 71 72 74 74 75 76 75 75 75 75 76 76 78 79 80 80 79 78 78 77 77 77 77 76 76
73 72 71 71 71 70 69 68 68 69 67 68 69 68 63 64 66 69 70 71 72 72 73 74 75 75 75 75 76 75 76 75 77 78 78 78 77 76 77 77 77 76 76
72 72 72 72 71 70 69 69 69 69 69 67 68 69 69 69 66 65 68 68 70 71 71 72 72 73 74 74 75 74 74 74 75 76 78 78 78 77 77 77 77 76 76
72 73 71 71 71 70 70 69 69 68 69 68 68 68 68 68 67 65 65 67 68 70 71 71 71 70 74 74 72 73 74 74 74 75 76 77 77 78 78 77 77 76 76
71 72 72 71 71 70 70 69 69 68 68 68 68 69 69 66 65 66 64 65 66 69 69 69 68 70 72 73 74 74 74 74 73 73 74 76 77 78 78 78 76 76 76
69 70 71 70 70 70 71 69 69 69 68 67 68 67 68 68 69 67 67 66 66 66 66 68 67 70 71 72 73 74 74 72 71 70 71 72 74 75 75 76 76 76 77
70 71 71 70 70 70 71 70 69 69 69 69 68 67 68 68 68 68 67 65 64 64 65 66 67 69 71 72 73 72 73 71 70 68 69 69 71 72 73 74 74 75 75
71 71 71 71 70 70 70 69 68 68 69 69 69 69 69 69 69 68 67 67 66 61 62 64 66 69 69 72 72 71 71 70 70 68 67 67 69 69 70 70 70 71 71
71 72 71 71 70 70 69 68 68 69 68 69 69 69 69 69 68 69 68 67 67 65 63 64 64 66 68 67 70 69 71 69 69 68 67 66 67 68 68 68 68 68 69
71 71 71 71 70 70 70 69 69 69 69 69 69 68 68 69 69 68 68 68 67 66 64 63 64 66 67 67 66 67 67 68 68 67 66 66 65 66 66 66 66 67 67
71 71 71 71 71 71 71 70 69 70 69 69 69 69 69 70 69 69 67 67 66 66 64 63 63 63 65 65 64 63 65 66 66 67 66 65 64 63 63 63 64 64 64
71 71 71 71 71 71 71 70 70 70 70 70 69 69 69 69 68 68 68 67 67 67 66 64 62 63 64 63 61 61 61 62 66 67 65 65 64 63 62 62 61 60 59
71 70 71 71 71 71 71 71 71 70 70 70 70 69 69 70 70 69 68 68 67 66 65 63 62 63 63 63 62 60 58 60 62 66 65 65 64 64 64 62 62 61 58
69 69 70 70 70 70 72 70 70 70 69 69 69 70 70 70 68 68 69 68 67 66 64 63 61 61 61 61 61 61 59 59 60 62 62 62 63 63 64 63 65 63 59
69 69 69 69 69 71 65 65 69 70 68 68 67 69 70 69 68 65 65 66 67 67 64 62 61 62 62 63 61 61 59 58 59 63 62 61 62 62 63 63 63 62 59
68 68 69 68 68 69 62 62 64 70 69 68 68 68 68 69 67 69 64 64 64 64 65 67 63 63 64 65 63 61 60 60 60 60 60 62 60 60 62 64 60 60 58
67 67 68 67 69 69 61 60 62 69 68 67 68 68 68 68 67 68 68 67 67 67 66 67 66 67 67 64 64 64 63 61 60 59 61 56 60 62 63 62 60 59 58
66 67 67 66 67 68 59 58 61 66 66 67 68 68 68 68 62 60 67 67 66 66 60 60 61 60 60 60 63 63 60 59 58 58 60 60 62 59 62 62 65 59 57
65 65 65 64 62 65 56 55 60 65 63 63 65 66 61 66 56 56 67 66 64 65 66 65 65 62 62 62 60 68 64 60 60 59 60 58 60 60 64 65 60 62 60

GFSMA_sfc_temp_087.txt.gz
Temp
82 83 84 85 85 86 83 84 84 84 84 84 85 84 86 87 89 90 90 82 80 80 81 82 82 81 81 81 80 80 80 80 80 80 80 80 80 80 80 80 79 79 79
82 83 83 84 85 86 85 85 84 84 84 84 84 84 84 87 88 88 91 91 81 80 80 82 82 82 82 81 80 80 80 81 80 80 79 79 79 79 79 79 79 79 79
81 82 83 79 82 83 83 83 82 83 84 83 82 85 85 86 88 87 88 89 90 81 80 81 81 82 81 81 80 80 80 80 80 79 79 79 78 78 78 79 79 79 79
81 80 83 83 81 81 79 83 83 82 83 82 82 84 85 84 85 86 87 87 89 91 85 81 81 81 81 82 82 80 80 79 79 79 79 79 78 77 78 78 78 78 78
81 81 81 82 80 79 81 79 80 82 81 78 80 83 83 85 86 88 86 86 87 89 91 85 80 80 81 82 82 82 81 79 79 79 79 79 79 78 78 77 78 77 77
75 74 77 77 79 82 78 82 80 80 80 79 80 84 80 85 86 86 87 88 88 88 88 87 87 88 81 81 82 82 81 81 80 79 79 79 79 78 78 77 77 77 77
80 79 75 78 76 76 78 77 78 77 79 79 76 78 80 84 84 85 87 87 87 87 87 87 86 88 88 78 78 79 80 81 80 79 79 79 78 78 77 77 77 77 77
80 79 77 77 77 75 72 70 71 71 76 79 75 76 75 82 83 85 85 84 85 87 87 86 85 84 84 85 83 78 78 79 80 79 79 78 78 77 78 77 77 76 76
80 79 79 78 77 78 80 76 75 70 68 75 76 76 70 75 79 82 80 83 82 84 85 84 83 83 83 84 81 82 78 76 78 79 79 79 77 77 77 77 76 76 76
81 80 78 76 77 78 77 79 73 71 70 67 72 75 77 78 77 77 81 80 79 80 81 84 83 82 82 84 80 78 75 74 75 77 78 78 78 77 76 76 77 77 77
80 80 79 78 77 76 75 75 75 73 69 69 68 74 74 75 77 77 76 81 80 81 83 83 84 83 81 81 82 79 74 75 75 75 76 77 77 78 77 77 77 78 78
82 81 80 77 77 76 74 73 73 71 69 68 70 73 74 74 74 75 75 76 77 82 83 83 80 79 77 82 80 75 75 74 73 73 74 75 76 78 78 78 79 79 78
80 80 79 78 77 75 74 73 70 69 68 68 68 68 73 78 79 77 72 76 73 78 79 80 76 73 79 75 82 75 75 73 72 71 72 73 75 76 77 77 78 78 77
82 81 80 80 78 76 75 75 74 73 72 70 69 69 69 69 70 71 68 67 64 67 72 73 69 69 72 80 79 74 78 72 71 69 69 70 71 72 73 74 74 75 75
82 80 80 80 79 78 77 76 76 75 75 73 73 75 77 79 77 73 71 69 66 62 63 66 66 68 70 76 76 80 79 70 70 69 68 68 69 70 71 71 71 71 71
80 80 80 80 79 78 77 76 76 77 76 77 78 77 77 80 76 78 73 72 68 66 63 66 66 68 70 70 72 76 76 71 69 68 67 67 68 69 69 69 69 69 69
79 80 80 80 79 78 77 75 75 76 75 76 77 77 77 77 80 79 75 71 71 69 66 66 67 69 68 67 68 71 71 74 73 67 67 66 66 67 67 66 67 67 68
80 80 81 80 80 80 79 77 78 78 76 75 76 76 76 78 75 77 79 75 75 75 72 67 65 65 66 67 66 64 64 68 68 67 66 65 64 63 63 64 64 64 64
80 82 80 79 80 80 79 79 79 79 78 78 77 77 76 76 75 76 76 76 77 75 73 70 70 68 67 64 63 62 62 64 66 67 66 65 64 63 62 62 62 61 60
80 80 80 80 81 81 81 81 79 78 78 79 78 78 78 77 76 76 76 76 72 72 71 69 68 66 67 65 63 60 59 61 63 68 67 67 67 65 64 62 62 61 58
80 80 80 80 81 81 83 80 80 80 79 78 78 78 79 77 72 73 79 76 71 72 69 67 65 64 63 62 61 61 60 60 61 63 66 68 67 69 68 65 65 63 60
78 77 78 79 79 81 69 66 75 80 79 78 77 78 79 72 71 66 66 67 73 73 70 70 66 65 64 64 62 61 61 60 59 66 67 66 71 70 66 69 67 62 60
77 77 78 78 78 79 63 62 65 80 79 79 78 78 79 81 73 78 65 63 65 65 67 73 70 71 70 67 66 62 62 64 63 61 67 68 68 70 72 67 62 61 59
75 77 77 78 77 79 62 60 62 78 78 79 79 78 77 77 76 77 76 72 70 71 71 74 74 75 74 73 68 66 64 62 60 61 63 67 72 71 75 75 61 60 58
73 75 74 75 75 77 59 57 63 77 78 77 78 78 78 77 66 61 75 70 70 72 63 61 62 61 61 61 66 64 61 59 58 58 60 62 66 67 63 67 66 59 58
71 71 72 72 68 73 59 55 62 80 77 78 76 76 63 73 57 57 73 75 72 71 73 72 71 65 65 65 61 70 67 62 63 61 67 64 68 68 70 75 73 73 64

GFSMA_sfc_temp_093.txt.gz
Temp
82 85 80 83 89 89 92 90 92 92 90 89 92 92 93 91 95 97 88 83 82 81 81 82 82 82 82 81 81 81 81 81 81 80 80 80 80 80 80 80 80 80 80
87 87 84 87 79 88 93 90 92 92 91 93 90 90 90 92 94 94 95 90 82 81 81 82 82 82 82 81 81 81 81 81 81 80 80 80 79 79 80 80 80 80 80
84 88 90 86 93 89 85 85 84 90 91 91 90 90 90 90 93 93 95 89 88 81 81 81 81 82 82 82 81 81 80 80 80 80 79 79 79 78 78 79 79 79 79
86 86 85 89 90 87 88 87 87 88 86 90 89 91 92 92 91 91 93 91 89 87 82 81 81 81 81 82 82 81 80 80 79 79 79 79 78 78 78 78 78 78 77
88 86 89 83 88 86 86 83 86 79 79 87 89 89 89 91 92 95 92 91 89 93 85 81 81 80 82 83 82 82 81 80 79 79 79 79 79 78 78 78 78 78 77
88 88 89 88 85 83 81 84 84 88 87 81 88 89 88 90 88 91 91 89 85 87 90 85 86 85 81 82 82 82 82 81 80 80 79 79 79 78 78 77 77 77 77
87 85 87 89 84 80 85 82 80 82 83 84 80 85 81 88 88 91 93 89 86 88 86 85 82 84 82 80 81 80 81 81 81 80 80 79 78 78 77 77 77 76 76
87 86 84 79 81 83 79 79 81 77 80 79 77 74 75 84 89 91 88 87 91 92 89 87 87 88 85 81 83 80 80 80 80 80 79 78 78 78 77 78 77 77 77
85 83 84 83 82 83 81 80 79 78 76 78 80 76 73 77 79 82 86 91 92 93 94 91 85 85 85 90 85 84 80 79 79 79 79 78 77 77 77 77 77 77 76
84 85 84 83 82 81 83 84 82 82 80 81 80 83 83 84 72 74 82 81 90 89 89 91 88 85 89 87 86 82 80 77 77 77 78 78 78 77 77 77 77 77 76
87 88 86 84 83 82 78 81 80 78 77 76 76 77 77 80 80 81 73 83 81 85 90 89 87 84 86 88 84 81 79 77 76 76 76 76 77 77 78 78 77 77 77
89 87 87 84 81 82 83 82 78 78 77 77 77 76 77 74 74 71 75 79 81 78 82 91 87 87 83 84 87 76 78 77 75 74 74 75 76 77 78 78 79 79 79
89 86 85 83 81 83 82 84 80 77 78 75 76 75 73 76 75 75 70 74 74 85 80 88 86 79 86 80 82 80 79 77 76 74 74 75 75 76 77 77 79 79 78
89 83 86 86 85 87 85 81 81 80 78 78 76 75 73 75 71 71 70 68 67 76 77 79 81 82 83 85 82 78 82 75 74 74 73 74 74 75 76 76 77 76 76
94 87 88 87 86 83 85 82 82 81 81 78 79 78 78 78 71 70 68 69 69 68 73 80 76 79 81 79 79 80 81 72 73 71 71 71 72 73 74 74 74 73 72
89 89 88 88 86 84 84 82 83 83 80 82 81 78 77 74 74 73 71 72 76 72 68 77 75 79 78 75 77 76 77 72 71 70 69 70 71 72 72 72 71 70 70
85 86 87 87 86 84 84 83 83 85 81 81 82 80 79 79 78 76 77 76 75 75 70 73 75 78 76 76 78 78 77 78 75 69 68 68 69 69 70 69 68 68 68
84 84 86 86 87 84 81 83 84 85 82 81 81 82 82 83 79 79 80 77 76 77 73 72 75 73 74 76 74 73 72 69 73 68 67 66 66 66 66 65 65 65 65
85 84 83 85 87 87 82 81 84 84 84 80 80 80 79 79 80 78 80 76 79 77 77 75 75 78 80 74 66 66 65 66 67 68 66 65 65 64 64 63 62 62 61
83 86 83 86 87 88 88 81 83 84 82 81 81 84 81 78 80 79 78 79 79 77 78 74 75 73 75 75 72 65 63 64 65 69 67 68 67 65 64 63 63 62 59
85 83 84 83 83 89 91 82 80 82 81 83 81 85 86 81 76 77 80 79 78 78 79 78 75 72 71 68 67 68 65 63 63 65 66 66 67 68 67 65 65 63 60
83 84 84 83 84 90 77 73 81 87 80 82 80 81 81 76 76 71 70 71 75 77 75 72 72 79 75 72 68 67 63 60 59 64 65 66 68 67 67 69 65 62 60
82 82 84 86 86 87 68 67 70 86 85 80 78 77 79 89 79 83 68 67 68 67 68 75 76 76 76 74 71 65 61 61 62 65 70 62 64 65 68 70 63 61 60
81 83 83 83 85 86 63 63 66 82 83 83 81 78 83 83 83 83 80 78 79 79 76 80 79 79 78 77 74 70 66 64 63 71 67 62 64 65 70 74 63 62 60
80 78 82 81 82 83 63 60 65 82 82 82 84 84 84 82 74 67 82 77 78 78 67 65 63 65 67 69 72 72 63 61 58 60 68 68 63 64 69 70 71 61 59
76 79 80 82 77 82 62 57 64 83 82 83 83 83 70 77 66 62 79 80 76 78 80 77 75 68 67 69 65 74 70 64 62 59 63 61 65 67 60 71 73 69 68

GFSMA_sfc_temp_096.txt.gz
Temp
76 78 78 81 78 82 81 81 81 82 81 85 85 87 84 85 87 84 81 82 81 81 82 82 82 82 81 81 81 81 81 81 80 80 80 80 80 80 80 80 80 80 79
77 78 77 80 80 82 81 78 80 81 82 83 83 86 85 85 87 87 84 82 81 81 81 82 82 82 82 81 81 81 81 81 81 80 80 79 79 79 79 80 80 79 79
78 78 81 81 78 80 83 81 83 83 81 84 84 83 83 84 85 86 86 82 82 81 81 81 81 81 81 81 81 81 80 80 80 79 79 79 78 78 79 79 79 79 79
81 80 79 78 81 79 80 79 81 81 81 79 80 81 81 82 82 83 85 85 83 85 81 81 80 81 81 82 82 81 80 79 79 79 79 79 78 78 78 78 78 78 78
83 81 78 81 82 79 79 78 78 78 78 77 81 81 81 82 83 88 84 84 85 83 83 82 81 80 82 83 82 82 81 80 79 79 79 79 79 78 78 78 78 78 78
83 81 82 79 79 78 77 79 78 78 77 78 83 83 79 81 81 81 83 87 85 84 83 83 79 81 81 82 82 81 81 81 80 79 79 79 79 78 78 77 77 77 77
83 81 83 80 81 78 77 78 76 77 75 76 74 76 76 82 83 82 83 84 83 83 83 82 81 81 82 80 80 80 81 81 81 80 79 79 78 78 78 77 77 77 77
82 83 81 82 80 78 77 78 77 75 75 76 74 71 69 74 80 83 83 83 83 83 85 84 82 80 81 80 79 80 81 81 81 80 79 78 78 77 78 77 77 77 77
82 81 81 80 79 79 77 77 76 76 74 74 75 70 67 66 74 80 81 82 81 82 83 83 83 83 81 79 79 81 81 80 79 80 79 78 77 76 76 77 76 76 76
83 81 79 80 79 80 77 78 78 77 75 74 74 76 75 74 69 68 75 75 74 74 83 82 83 82 81 82 83 82 80 80 78 78 78 78 77 77 77 76 77 76 76
82 83 80 78 77 77 77 76 77 76 75 73 72 72 73 72 73 69 67 69 73 78 81 81 81 81 82 81 80 80 78 78 77 76 76 76 76 77 77 77 77 77 77
82 82 81 79 78 78 76 76 76 76 75 74 72 72 71 71 70 69 68 71 71 72 78 76 79 80 79 79 83 78 77 77 76 75 74 75 75 76 77 78 78 78 78
82 81 81 80 80 78 78 78 77 76 76 74 74 73 73 72 73 72 70 68 69 72 73 77 80 78 79 77 77 79 78 75 76 75 74 74 74 75 76 77 77 78 79
84 82 81 81 81 79 80 78 79 78 76 75 74 73 72 72 72 71 69 68 65 67 70 74 76 76 76 76 77 78 75 76 75 74 74 74 74 75 75 76 76 76 77
84 83 82 81 81 80 79 79 78 77 76 75 75 75 74 75 73 72 70 67 66 63 65 72 72 77 75 75 75 76 75 74 74 72 72 72 72 73 74 74 74 73 73
82 82 82 82 81 81 81 79 78 78 77 76 75 74 74 75 74 72 70 68 67 66 64 70 72 74 76 75 75 75 73 72 71 70 70 70 71 72 73 72 71 70 70
83 81 83 82 81 81 81 78 78 79 77 76 76 76 75 75 74 73 72 72 69 69 67 69 72 72 71 72 74 73 72 71 69 69 69 69 69 70 70 69 68 68 69
83 81 82 82 82 81 79 79 78 81 78 77 77 76 75 77 74 74 73 72 72 71 70 68 71 71 71 72 73 71 70 70 69 68 67 67 66 66 66 65 65 65 65
80 82 82 81 82 82 80 79 79 80 80 78 78 76 76 76 74 72 72 72 72 72 72 70 69 71 71 70 67 68 67 67 67 68 67 66 65 65 64 63 62 61 61
78 79 79 81 82 82 82 79 79 79 78 80 78 77 76 76 75 73 73 72 72 71 71 70 70 70 70 69 67 64 62 65 65 68 68 68 67 66 65 63 62 61 59
77 79 79 80 82 84 87 80 80 79 78 77 78 78 77 77 78 76 74 72 72 71 70 71 70 69 68 67 67 67 65 63 63 65 65 65 65 65 64 64 65 64 61
77 78 79 79 79 85 77 73 79 80 78 78 76 78 78 75 74 72 72 72 74 71 70 70 69 68 68 69 70 68 64 61 59 64 64 65 67 66 65 65 64 62 60
77 77 77 77 77 79 69 68 72 82 80 78 78 77 79 84 75 77 69 69 69 69 69 71 69 70 70 70 69 66 63 62 62 63 64 63 66 66 66 65 62 61 60
74 73 74 73 76 78 65 63 68 79 79 79 79 78 77 77 78 76 75 73 73 73 70 74 71 73 74 73 70 67 65 64 65 64 67 61 63 63 66 66 62 61 60
70 72 75 78 77 75 61 61 65 77 78 78 80 79 78 77 72 66 74 73 73 73 67 65 63 66 67 68 69 69 63 61 59 61 67 65 63 63 64 66 64 61 59
71 71 72 76 73 75 63 58 62 77 76 78 78 78 69 75 67 61 73 73 71 73 72 69 67 65 65 67 65 70 66 63 61 59 63 63 65 64 62 67 67 63 61